| time (UTC) | temp C | wind direction | speed KPH | gust KPH | rain 1hr cm | rain 24hr cm | rain mn cm | humidity % | barometer mb |
| 20260505173903 | 14 | 269 | 14.5 | 35.4 | 0.08 | 0.08 | 0.05 | 77 | 1007.9 |
| 20260505173831 | 14 | 286 | 14.5 | 35.4 | 0.05 | 0.05 | 0.05 | 77 | 1007.9 |
| 20260505173750 | 14 | 262 | 16.1 | 35.4 | 0.05 | 0.05 | 0.03 | 76 | 1007.8 |
| 20260505173713 | 15 | 231 | 16.1 | 35.4 | 0.00 | 0.00 | 0.00 | 75 | 1007.8 |
| 20260505173632 | 15 | 249 | 16.1 | 35.4 | 0.00 | 0.00 | 0.00 | 74 | 1007.8 |
| 20260505173328 | 15 | 216 | 14.5 | 32.2 | 0.00 | 0.00 | 0.00 | 71 | 1007.8 |
| 20260505173229 | 15 | 259 | 14.5 | 32.2 | 0.00 | 0.00 | 0.00 | 70 | 1007.7 |
| 20260505173125 | 15 | 215 | 12.9 | 32.2 | 0.00 | 0.00 | 0.00 | 68 | 1007.7 |
| 20260505173031 | 16 | 243 | 12.9 | 32.2 | 0.00 | 0.00 | 0.00 | 67 | 1007.8 |
| 20260505172927 | 16 | 226 | 11.3 | 32.2 | 0.00 | 0.00 | 0.00 | 66 | 1007.8 |
| 20260505172822 | 16 | 216 | 9.7 | 32.2 | 0.00 | 0.00 | 0.00 | 65 | 1007.8 |
| 20260505172724 | 16 | 248 | 8.0 | 32.2 | 0.00 | 0.00 | 0.00 | 65 | 1007.6 |
| 20260505172624 | 16 | 229 | 6.4 | 32.2 | 0.00 | 0.00 | 0.00 | 66 | 1007.7 |
| 20260505172524 | 16 | 236 | 3.2 | 29.0 | 0.00 | 0.00 | 0.00 | 68 | 1007.6 |
| 20260505172421 | 16 | 237 | 1.6 | 14.5 | 0.00 | 0.00 | 0.00 | 68 | 1007.4 |
| 20260505172315 | 16 | 281 | 1.6 | 6.4 | 0.00 | 0.00 | 0.00 | 67 | 1006.9 |
| 20260505172216 | 16 | 325 | 1.6 | 6.4 | 0.00 | 0.00 | 0.00 | 67 | 1006.6 |
| 20260505172113 | 17 | 325 | 1.6 | 6.4 | 0.00 | 0.00 | 0.00 | 67 | 1006.6 |
| 20260505172019 | 17 | 322 | 1.6 | 8.0 | 0.00 | 0.00 | 0.00 | 67 | 1006.6 |
| 20260505171807 | 17 | 321 | 1.6 | 8.0 | 0.00 | 0.00 | 0.00 | 67 | 1006.4 |
| 20260505171707 | 17 | 333 | 1.6 | 8.0 | 0.00 | 0.00 | 0.00 | 67 | 1006.5 |
| 20260505171612 | 17 | 328 | 3.2 | 9.7 | 0.00 | 0.00 | 0.00 | 67 | 1006.4 |
| 20260505171518 | 17 | 326 | 3.2 | 9.7 | 0.00 | 0.00 | 0.00 | 67 | 1006.5 |
| 20260505171305 | 17 | 326 | 3.2 | 9.7 | 0.00 | 0.00 | 0.00 | 67 | 1006.4 |
| 20260505171215 | 17 | 326 | 3.2 | 9.7 | 0.00 | 0.00 | 0.00 | 67 | 1006.4 |
| 20260505171106 | 17 | 326 | 3.2 | 9.7 | 0.00 | 0.00 | 0.00 | 67 | 1006.4 |
| 20260505171012 | 17 | 333 | 3.2 | 9.7 | 0.00 | 0.00 | 0.00 | 67 | 1006.5 |
| 20260505170757 | 17 | 2 | 3.2 | 9.7 | 0.00 | 0.00 | 0.00 | 67 | 1006.4 |
| 20260505170654 | 17 | 327 | 1.6 | 9.7 | 0.00 | 0.00 | 0.00 | 67 | 1006.4 |
| 20260505170555 | 17 | 332 | 1.6 | 9.7 | 0.00 | 0.00 | 0.00 | 67 | 1006.3 |
| 20260505170455 | 17 | 329 | 1.6 | 6.4 | 0.00 | 0.00 | 0.00 | 67 | 1006.4 |
| 20260505170256 | 17 | 328 | 1.6 | 6.4 | 0.00 | 0.00 | 0.00 | 67 | 1006.3 |
| 20260505170156 | 17 | 331 | 1.6 | 8.0 | 0.00 | 0.00 | 0.00 | 67 | 1006.4 |
| 20260505170104 | 17 | 331 | 1.6 | 8.0 | 0.00 | 0.00 | 0.00 | 66 | 1006.4 |
| 20260505165954 | 17 | 331 | 3.2 | 8.0 | 0.00 | 0.00 | 0.00 | 66 | 1006.3 |
| 20260505165743 | 17 | 35 | 3.2 | 8.0 | 0.00 | 0.00 | 0.00 | 67 | 1006.3 |
| 20260505165644 | 17 | 35 | 3.2 | 8.0 | 0.00 | 0.00 | 0.00 | 66 | 1006.3 |
| 20260505165543 | 17 | 35 | 3.2 | 8.0 | 0.00 | 0.00 | 0.00 | 66 | 1006.3 |
| 20260505165444 | 17 | 30 | 3.2 | 8.0 | 0.00 | 0.00 | 0.00 | 66 | 1006.3 |
| 20260505165345 | 17 | 32 | 3.2 | 8.0 | 0.00 | 0.00 | 0.00 | 66 | 1006.4 |
| 20260505165240 | 17 | 35 | 3.2 | 8.0 | 0.00 | 0.00 | 0.00 | 66 | 1006.4 |
| 20260505165136 | 17 | 34 | 3.2 | 8.0 | 0.00 | 0.00 | 0.00 | 66 | 1006.4 |
| 20260505165038 | 17 | 12 | 3.2 | 8.0 | 0.00 | 0.00 | 0.00 | 66 | 1006.3 |
| 20260505164939 | 17 | 351 | 3.2 | 8.0 | 0.00 | 0.00 | 0.00 | 66 | 1006.3 |
| 20260505164839 | 17 | 347 | 3.2 | 8.0 | 0.00 | 0.00 | 0.00 | 66 | 1006.4 |
| 20260505164738 | 17 | 21 | 3.2 | 8.0 | 0.00 | 0.00 | 0.00 | 66 | 1006.4 |
| 20260505164636 | 17 | 32 | 3.2 | 8.0 | 0.00 | 0.00 | 0.00 | 66 | 1006.4 |
| 20260505164536 | 17 | 32 | 3.2 | 12.9 | 0.00 | 0.00 | 0.00 | 67 | 1006.4 |
| 20260505164437 | 17 | 21 | 3.2 | 12.9 | 0.00 | 0.00 | 0.00 | 66 | 1006.5 |
| 20260505164337 | 17 | 44 | 3.2 | 12.9 | 0.00 | 0.00 | 0.00 | 67 | 1006.4 |
| 20260505164234 | 17 | 54 | 3.2 | 12.9 | 0.00 | 0.00 | 0.00 | 67 | 1006.5 |
| 20260505164135 | 17 | 36 | 3.2 | 12.9 | 0.00 | 0.00 | 0.00 | 67 | 1006.5 |
| 20260505164032 | 17 | 35 | 3.2 | 12.9 | 0.00 | 0.00 | 0.00 | 67 | 1006.5 |
| 20260505163934 | 17 | 50 | 3.2 | 12.9 | 0.00 | 0.00 | 0.00 | 67 | 1006.5 |
| 20260505163830 | 17 | 58 | 3.2 | 12.9 | 0.00 | 0.00 | 0.00 | 67 | 1006.4 |
| 20260505163730 | 17 | 25 | 3.2 | 12.9 | 0.00 | 0.00 | 0.00 | 67 | 1006.5 |
| 20260505163629 | 17 | 48 | 3.2 | 12.9 | 0.00 | 0.00 | 0.00 | 68 | 1006.5 |
| 20260505163535 | 17 | 44 | 3.2 | 9.7 | 0.00 | 0.00 | 0.00 | 68 | 1006.5 |
| 20260505163446 | 17 | 324 | 3.2 | 11.3 | 0.00 | 0.00 | 0.00 | 68 | 1006.5 |
| 20260505163358 | 17 | 38 | 3.2 | 14.5 | 0.00 | 0.00 | 0.00 | 68 | 1006.5 |
| 20260505163312 | 17 | 24 | 4.8 | 14.5 | 0.00 | 0.00 | 0.00 | 68 | 1006.5 |
| 20260505163239 | 17 | 21 | 4.8 | 14.5 | 0.00 | 0.00 | 0.00 | 68 | 1006.5 |
| 20260505163207 | 17 | 22 | 4.8 | 14.5 | 0.00 | 0.00 | 0.00 | 67 | 1006.5 |
| 20260505163120 | 17 | 47 | 4.8 | 14.5 | 0.00 | 0.00 | 0.00 | 67 | 1006.5 |
| 20260505162816 | 17 | 44 | 4.8 | 14.5 | 0.00 | 0.00 | 0.00 | 67 | 1006.6 |
| 20260505162715 | 17 | 46 | 6.4 | 14.5 | 0.00 | 0.00 | 0.00 | 66 | 1006.6 |
| 20260505162617 | 17 | 19 | 6.4 | 14.5 | 0.00 | 0.00 | 0.00 | 67 | 1006.7 |
| 20260505162518 | 17 | 18 | 4.8 | 14.5 | 0.00 | 0.00 | 0.00 | 67 | 1006.7 |
| 20260505162413 | 17 | 32 | 4.8 | 14.5 | 0.00 | 0.00 | 0.00 | 66 | 1006.7 |
| 20260505162311 | 17 | 35 | 6.4 | 14.5 | 0.00 | 0.00 | 0.00 | 66 | 1006.7 |
| 20260505162209 | 17 | 356 | 6.4 | 17.7 | 0.00 | 0.00 | 0.00 | 66 | 1006.7 |
| 20260505162118 | 17 | 16 | 6.4 | 17.7 | 0.00 | 0.00 | 0.00 | 67 | 1006.7 |
| 20260505162021 | 17 | 16 | 8.0 | 19.3 | 0.00 | 0.00 | 0.00 | 66 | 1006.6 |
| 20260505161921 | 17 | 18 | 8.0 | 19.3 | 0.00 | 0.00 | 0.00 | 66 | 1006.7 |
| 20260505161843 | 17 | 45 | 8.0 | 19.3 | 0.00 | 0.00 | 0.00 | 66 | 1006.8 |
| 20260505161811 | 17 | 30 | 8.0 | 19.3 | 0.00 | 0.00 | 0.00 | 66 | 1006.6 |
| 20260505161735 | 17 | 80 | 8.0 | 19.3 | 0.00 | 0.00 | 0.00 | 66 | 1006.8 |
| 20260505161640 | 18 | 49 | 8.0 | 19.3 | 0.00 | 0.00 | 0.00 | 66 | 1006.7 |
| 20260505161554 | 18 | 44 | 9.7 | 24.1 | 0.00 | 0.00 | 0.00 | 66 | 1006.7 |
| 20260505161507 | 18 | 40 | 8.0 | 24.1 | 0.00 | 0.00 | 0.00 | 66 | 1006.7 |
| 20260505161430 | 18 | 30 | 8.0 | 24.1 | 0.00 | 0.00 | 0.00 | 66 | 1006.8 |
| 20260505161341 | 18 | 48 | 8.0 | 24.1 | 0.00 | 0.00 | 0.00 | 66 | 1006.8 |
| 20260505161303 | 18 | 25 | 8.0 | 24.1 | 0.00 | 0.00 | 0.00 | 66 | 1006.8 |
| 20260505161218 | 18 | 51 | 8.0 | 24.1 | 0.00 | 0.00 | 0.00 | 66 | 1006.8 |
| 20260505160925 | 18 | 18 | 8.0 | 24.1 | 0.00 | 0.00 | 0.00 | 66 | 1006.8 |
| 20260505160852 | 18 | 66 | 8.0 | 24.1 | 0.00 | 0.00 | 0.00 | 66 | 1006.8 |
| 20260505160812 | 18 | 32 | 8.0 | 24.1 | 0.00 | 0.00 | 0.00 | 66 | 1006.8 |
| 20260505160713 | 18 | 35 | 8.0 | 19.3 | 0.00 | 0.00 | 0.00 | 66 | 1006.8 |
| 20260505160426 | 18 | 54 | 8.0 | 20.9 | 0.00 | 0.00 | 0.00 | 66 | 1006.8 |
| 20260505160346 | 18 | 56 | 8.0 | 20.9 | 0.00 | 0.00 | 0.00 | 66 | 1006.8 |
| 20260505160308 | 18 | 24 | 8.0 | 20.9 | 0.00 | 0.00 | 0.00 | 66 | 1006.8 |
| 20260505160237 | 18 | 20 | 8.0 | 20.9 | 0.00 | 0.00 | 0.00 | 66 | 1006.8 |
| 20260505160147 | 18 | 27 | 6.4 | 20.9 | 0.00 | 0.00 | 0.00 | 66 | 1006.8 |
| 20260505160110 | 18 | 60 | 8.0 | 20.9 | 0.00 | 0.00 | 0.00 | 67 | 1006.7 |
| 20260505153233 | 18 | 18 | 4.8 | 12.9 | 0.00 | 0.00 | 0.00 | 67 | 1006.9 |
| 20260505153132 | 18 | 325 | 4.8 | 12.9 | 0.00 | 0.00 | 0.00 | 67 | 1006.9 |
| 20260505153032 | 18 | 356 | 4.8 | 12.9 | 0.00 | 0.00 | 0.00 | 67 | 1007.0 |
| 20260505152930 | 18 | 44 | 4.8 | 11.3 | 0.00 | 0.00 | 0.00 | 67 | 1007.0 |
| 20260505152733 | 18 | 30 | 6.4 | 11.3 | 0.00 | 0.00 | 0.00 | 67 | 1007.0 |
| 20260505152631 | 18 | 6 | 6.4 | 11.3 | 0.00 | 0.00 | 0.00 | 67 | 1007.0 |
| 20260505152531 | 18 | 54 | 4.8 | 11.3 | 0.00 | 0.00 | 0.00 | 67 | 1007.0 |
| 20260505152430 | 18 | 59 | 6.4 | 11.3 | 0.00 | 0.00 | 0.00 | 67 | 1007.1 |
| 20260505152229 | 18 | 347 | 6.4 | 14.5 | 0.00 | 0.00 | 0.00 | 68 | 1007.1 |
| 20260505152135 | 18 | 42 | 4.8 | 14.5 | 0.00 | 0.00 | 0.00 | 68 | 1007.1 |
| 20260505152030 | 18 | 47 | 4.8 | 14.5 | 0.00 | 0.00 | 0.00 | 68 | 1007.2 |
| 20260505151948 | 18 | 20 | 4.8 | 14.5 | 0.00 | 0.00 | 0.00 | 68 | 1007.2 |
| 20260505151820 | 18 | 56 | 4.8 | 14.5 | 0.00 | 0.00 | 0.00 | 68 | 1007.2 |
| 20260505151748 | 18 | 85 | 4.8 | 14.5 | 0.00 | 0.00 | 0.00 | 68 | 1007.1 |
| 20260505151711 | 18 | 68 | 4.8 | 14.5 | 0.00 | 0.00 | 0.00 | 68 | 1007.1 |
| 20260505151625 | 18 | 11 | 4.8 | 14.5 | 0.00 | 0.00 | 0.00 | 68 | 1007.3 |
| 20260505151542 | 18 | 62 | 3.2 | 14.5 | 0.00 | 0.00 | 0.00 | 68 | 1007.1 |
| 20260505151226 | 18 | 329 | 4.8 | 16.1 | 0.00 | 0.00 | 0.00 | 68 | 1007.1 |
| 20260505151127 | 18 | 329 | 4.8 | 16.1 | 0.00 | 0.00 | 0.00 | 68 | 1007.1 |
| 20260505151042 | 18 | 14 | 4.8 | 17.7 | 0.00 | 0.00 | 0.00 | 68 | 1007.2 |
| 20260505150955 | 18 | 2 | 6.4 | 17.7 | 0.00 | 0.00 | 0.00 | 67 | 1007.1 |
| 20260505150823 | 18 | 37 | 6.4 | 19.3 | 0.00 | 0.00 | 0.00 | 67 | 1007.2 |
| 20260505150741 | 18 | 11 | 6.4 | 19.3 | 0.00 | 0.00 | 0.00 | 67 | 1007.2 |
| 20260505150701 | 18 | 59 | 6.4 | 19.3 | 0.00 | 0.00 | 0.00 | 67 | 1007.3 |
| 20260505150616 | 18 | 36 | 6.4 | 19.3 | 0.00 | 0.00 | 0.00 | 67 | 1007.3 |
| 20260505150313 | 18 | 16 | 6.4 | 19.3 | 0.00 | 0.00 | 0.00 | 66 | 1007.2 |
| 20260505150209 | 18 | 63 | 8.0 | 19.3 | 0.00 | 0.00 | 0.00 | 66 | 1007.2 |
| 20260505150114 | 18 | 34 | 6.4 | 19.3 | 0.00 | 0.00 | 0.00 | 65 | 1007.2 |
| 20260505140628 | 18 | 317 | 4.8 | 19.3 | 0.00 | 0.00 | 0.00 | 61 | 1007.4 |
| 20260505140533 | 18 | 5 | 3.2 | 19.3 | 0.00 | 0.00 | 0.00 | 62 | 1007.4 |
| 20260505140427 | 18 | 347 | 3.2 | 16.1 | 0.00 | 0.00 | 0.00 | 62 | 1007.4 |
| 20260505140328 | 18 | 7 | 3.2 | 14.5 | 0.00 | 0.00 | 0.00 | 62 | 1007.4 |
| 20260505140224 | 18 | 329 | 3.2 | 17.7 | 0.00 | 0.00 | 0.00 | 62 | 1007.4 |
| 20260505140125 | 18 | 324 | 3.2 | 17.7 | 0.00 | 0.00 | 0.00 | 62 | 1007.5 |
| 20260505130257 | 19 | 328 | 4.8 | 17.7 | 0.00 | 0.00 | 0.00 | 58 | 1008.0 |
| 20260505130159 | 19 | 324 | 4.8 | 17.7 | 0.00 | 0.00 | 0.00 | 58 | 1008.0 |
| 20260505130104 | 19 | 34 | 4.8 | 17.7 | 0.00 | 0.00 | 0.00 | 59 | 1008.0 |
| 20260505124953 | 20 | 331 | 6.4 | 22.5 | 0.00 | 0.00 | 0.00 | 57 | 1008.0 |
| 20260505124851 | 20 | 342 | 6.4 | 22.5 | 0.00 | 0.00 | 0.00 | 57 | 1008.0 |
| 20260505124751 | 20 | 343 | 4.8 | 22.5 | 0.00 | 0.00 | 0.00 | 58 | 1008.0 |
| 20260505124655 | 20 | 321 | 4.8 | 14.5 | 0.00 | 0.00 | 0.00 | 58 | 1008.0 |
| 20260505124555 | 20 | 13 | 4.8 | 16.1 | 0.00 | 0.00 | 0.00 | 58 | 1007.9 |
| 20260505124451 | 20 | 21 | 4.8 | 16.1 | 0.00 | 0.00 | 0.00 | 57 | 1008.0 |
| 20260505124407 | 20 | 25 | 4.8 | 16.1 | 0.00 | 0.00 | 0.00 | 58 | 1008.0 |
| 20260505124325 | 20 | 36 | 4.8 | 16.1 | 0.00 | 0.00 | 0.00 | 59 | 1008.0 |
| 20260505124243 | 20 | 315 | 4.8 | 16.1 | 0.00 | 0.00 | 0.00 | 58 | 1007.9 |
| 20260505124206 | 20 | 325 | 4.8 | 16.1 | 0.00 | 0.00 | 0.00 | 57 | 1008.0 |
| 20260505124124 | 20 | 319 | 4.8 | 16.1 | 0.00 | 0.00 | 0.00 | 59 | 1007.9 |
| 20260505124049 | 20 | 329 | 6.4 | 16.1 | 0.00 | 0.00 | 0.00 | 58 | 1008.0 |
| 20260505123747 | 20 | 327 | 6.4 | 17.7 | 0.00 | 0.00 | 0.00 | 59 | 1008.0 |
| 20260505123650 | 20 | 329 | 6.4 | 17.7 | 0.00 | 0.00 | 0.00 | 58 | 1008.0 |
| 20260505123545 | 20 | 25 | 6.4 | 17.7 | 0.00 | 0.00 | 0.00 | 57 | 1008.0 |
| 20260505123447 | 20 | 324 | 8.0 | 17.7 | 0.00 | 0.00 | 0.00 | 58 | 1007.9 |
| 20260505123348 | 19 | 318 | 8.0 | 17.7 | 0.00 | 0.00 | 0.00 | 58 | 1008.0 |
| 20260505123247 | 19 | 335 | 8.0 | 17.7 | 0.00 | 0.00 | 0.00 | 58 | 1008.0 |
| 20260505123143 | 19 | 321 | 8.0 | 17.7 | 0.00 | 0.00 | 0.00 | 58 | 1008.0 |
| 20260505123045 | 19 | 333 | 6.4 | 17.7 | 0.00 | 0.00 | 0.00 | 57 | 1008.0 |
| 20260505122945 | 19 | 319 | 6.4 | 17.7 | 0.00 | 0.00 | 0.00 | 58 | 1008.0 |
| 20260505122846 | 19 | 312 | 6.4 | 17.7 | 0.00 | 0.00 | 0.00 | 58 | 1008.0 |
| 20260505122742 | 19 | 317 | 6.4 | 16.1 | 0.00 | 0.00 | 0.00 | 58 | 1008.0 |
| 20260505122642 | 19 | 314 | 6.4 | 16.1 | 0.00 | 0.00 | 0.00 | 58 | 1008.0 |
| 20260505122539 | 19 | 324 | 6.4 | 16.1 | 0.00 | 0.00 | 0.00 | 57 | 1008.1 |
| 20260505122443 | 19 | 322 | 6.4 | 16.1 | 0.00 | 0.00 | 0.00 | 58 | 1008.1 |
| 20260505122342 | 19 | 318 | 4.8 | 14.5 | 0.00 | 0.00 | 0.00 | 58 | 1008.1 |
| 20260505122241 | 19 | 332 | 6.4 | 20.9 | 0.00 | 0.00 | 0.00 | 59 | 1008.0 |
| 20260505122139 | 19 | 329 | 6.4 | 20.9 | 0.00 | 0.00 | 0.00 | 59 | 1008.1 |
| 20260505122041 | 19 | 333 | 6.4 | 20.9 | 0.00 | 0.00 | 0.00 | 59 | 1008.1 |
| 20260505121942 | 19 | 326 | 8.0 | 20.9 | 0.00 | 0.00 | 0.00 | 59 | 1008.0 |
| 20260505121839 | 19 | 322 | 8.0 | 20.9 | 0.00 | 0.00 | 0.00 | 59 | 1008.0 |
| 20260505121739 | 19 | 329 | 6.4 | 20.9 | 0.00 | 0.00 | 0.00 | 59 | 1008.1 |
| 20260505121641 | 19 | 332 | 6.4 | 20.9 | 0.00 | 0.00 | 0.00 | 58 | 1008.1 |
| 20260505121554 | 19 | 331 | 6.4 | 20.9 | 0.00 | 0.00 | 0.00 | 59 | 1008.0 |
| 20260505121445 | 19 | 327 | 6.4 | 20.9 | 0.00 | 0.00 | 0.00 | 58 | 1008.1 |
| 20260505121340 | 19 | 331 | 6.4 | 20.9 | 0.00 | 0.00 | 0.00 | 58 | 1008.1 |
| 20260505121238 | 19 | 332 | 6.4 | 17.7 | 0.00 | 0.00 | 0.00 | 59 | 1008.1 |
| 20260505121139 | 19 | 327 | 6.4 | 17.7 | 0.00 | 0.00 | 0.00 | 59 | 1008.1 |
| 20260505121036 | 19 | 329 | 6.4 | 17.7 | 0.00 | 0.00 | 0.00 | 59 | 1008.2 |
| 20260505120935 | 19 | 319 | 4.8 | 17.7 | 0.00 | 0.00 | 0.00 | 59 | 1008.1 |
| 20260505120838 | 19 | 338 | 4.8 | 17.7 | 0.00 | 0.00 | 0.00 | 59 | 1008.1 |
| 20260505120739 | 20 | 333 | 4.8 | 17.7 | 0.00 | 0.00 | 0.00 | 59 | 1008.1 |
| 20260505120645 | 20 | 317 | 4.8 | 12.9 | 0.00 | 0.00 | 0.00 | 60 | 1008.2 |
| 20260505120533 | 20 | 327 | 4.8 | 12.9 | 0.00 | 0.00 | 0.00 | 59 | 1008.2 |
| 20260505120433 | 20 | 320 | 3.2 | 12.9 | 0.00 | 0.00 | 0.00 | 59 | 1008.1 |
| 20260505120333 | 20 | 299 | 4.8 | 20.9 | 0.00 | 0.00 | 0.00 | 60 | 1008.1 |
| 20260505120238 | 20 | 315 | 4.8 | 20.9 | 0.00 | 0.00 | 0.00 | 59 | 1008.1 |
| 20260505120136 | 20 | 329 | 4.8 | 20.9 | 0.00 | 0.00 | 0.00 | 59 | 1008.1 |
| 20260505120037 | 20 | 340 | 4.8 | 20.9 | 0.00 | 0.00 | 0.00 | 59 | 1008.1 |
| 20260505115931 | 20 | 359 | 6.4 | 20.9 | 0.00 | 0.00 | 0.00 | 59 | 1008.2 |
| 20260505115836 | 20 | 333 | 6.4 | 20.9 | 0.00 | 0.00 | 0.00 | 58 | 1008.1 |
| 20260505115735 | 20 | 349 | 8.0 | 20.9 | 0.00 | 0.00 | 0.00 | 58 | 1008.2 |
| 20260505115632 | 20 | 329 | 8.0 | 20.9 | 0.00 | 0.00 | 0.00 | 58 | 1008.1 |
| 20260505115536 | 20 | 326 | 9.7 | 20.9 | 0.00 | 0.00 | 0.00 | 58 | 1008.1 |
| 20260505115451 | 20 | 359 | 9.7 | 20.9 | 0.00 | 0.00 | 0.00 | 58 | 1008.2 |
| 20260505115412 | 20 | 327 | 11.3 | 19.3 | 0.00 | 0.00 | 0.00 | 57 | 1008.1 |
| 20260505115324 | 20 | 326 | 11.3 | 20.9 | 0.00 | 0.00 | 0.00 | 57 | 1008.1 |
| 20260505115245 | 20 | 330 | 11.3 | 20.9 | 0.00 | 0.00 | 0.00 | 57 | 1008.1 |
| 20260505115158 | 20 | 314 | 11.3 | 20.9 | 0.00 | 0.00 | 0.00 | 58 | 1008.2 |
| 20260505115116 | 20 | 333 | 11.3 | 20.9 | 0.00 | 0.00 | 0.00 | 57 | 1008.1 |
| 20260505115032 | 20 | 327 | 11.3 | 20.9 | 0.00 | 0.00 | 0.00 | 57 | 1008.1 |
| 20260505114731 | 20 | 325 | 9.7 | 20.9 | 0.00 | 0.00 | 0.00 | 56 | 1008.2 |
| 20260505114632 | 20 | 333 | 9.7 | 20.9 | 0.00 | 0.00 | 0.00 | 57 | 1008.1 |
| 20260505114534 | 20 | 327 | 9.7 | 20.9 | 0.00 | 0.00 | 0.00 | 57 | 1008.2 |
| 20260505114431 | 20 | 320 | 8.0 | 20.9 | 0.00 | 0.00 | 0.00 | 56 | 1008.2 |
| 20260505114331 | 20 | 326 | 6.4 | 20.9 | 0.00 | 0.00 | 0.00 | 56 | 1008.2 |
| 20260505114235 | 20 | 318 | 6.4 | 19.3 | 0.00 | 0.00 | 0.00 | 57 | 1008.2 |
| 20260505114134 | 20 | 316 | 4.8 | 19.3 | 0.00 | 0.00 | 0.00 | 56 | 1008.3 |
| 20260505114033 | 21 | 314 | 4.8 | 19.3 | 0.00 | 0.00 | 0.00 | 57 | 1008.3 |
| 20260505113933 | 21 | 328 | 4.8 | 12.9 | 0.00 | 0.00 | 0.00 | 57 | 1008.3 |
| 20260505113832 | 21 | 324 | 3.2 | 11.3 | 0.00 | 0.00 | 0.00 | 57 | 1008.3 |
| 20260505113732 | 21 | 14 | 3.2 | 11.3 | 0.00 | 0.00 | 0.00 | 56 | 1008.3 |
| 20260505113632 | 21 | 313 | 3.2 | 11.3 | 0.00 | 0.00 | 0.00 | 55 | 1008.3 |
| 20260505113530 | 21 | 299 | 3.2 | 11.3 | 0.00 | 0.00 | 0.00 | 54 | 1008.3 |
| 20260505113427 | 20 | 333 | 3.2 | 11.3 | 0.00 | 0.00 | 0.00 | 55 | 1008.2 |
| 20260505113329 | 20 | 21 | 3.2 | 11.3 | 0.00 | 0.00 | 0.00 | 52 | 1008.3 |
| 20260505113229 | 20 | 43 | 3.2 | 11.3 | 0.00 | 0.00 | 0.00 | 51 | 1008.2 |
| 20260505113127 | 20 | 72 | 3.2 | 11.3 | 0.00 | 0.00 | 0.00 | 52 | 1008.2 |
| 20260505113031 | 20 | 88 | 3.2 | 9.7 | 0.00 | 0.00 | 0.00 | 51 | 1008.2 |
| 20260505112930 | 20 | 75 | 3.2 | 12.9 | 0.00 | 0.00 | 0.00 | 50 | 1008.3 |
| 20260505112827 | 20 | 42 | 4.8 | 12.9 | 0.00 | 0.00 | 0.00 | 51 | 1008.3 |
| 20260505112727 | 20 | 42 | 4.8 | 12.9 | 0.00 | 0.00 | 0.00 | 51 | 1008.3 |
| 20260505112634 | 20 | 60 | 4.8 | 12.9 | 0.00 | 0.00 | 0.00 | 52 | 1008.3 |
| 20260505112531 | 20 | 46 | 4.8 | 12.9 | 0.00 | 0.00 | 0.00 | 52 | 1008.3 |
| 20260505112428 | 20 | 42 | 4.8 | 12.9 | 0.00 | 0.00 | 0.00 | 52 | 1008.3 |
| 20260505112322 | 20 | 49 | 3.2 | 12.9 | 0.00 | 0.00 | 0.00 | 54 | 1008.3 |
| 20260505112219 | 20 | 56 | 3.2 | 12.9 | 0.00 | 0.00 | 0.00 | 55 | 1008.4 |
| 20260505112121 | 20 | 50 | 3.2 | 12.9 | 0.00 | 0.00 | 0.00 | 54 | 1008.3 |
| 20260505112027 | 20 | 58 | 3.2 | 12.9 | 0.00 | 0.00 | 0.00 | 54 | 1008.4 |
| 20260505111923 | 20 | 84 | 1.6 | 8.0 | 0.00 | 0.00 | 0.00 | 56 | 1008.3 |
| 20260505111826 | 20 | 35 | 1.6 | 8.0 | 0.00 | 0.00 | 0.00 | 56 | 1008.4 |
| 20260505111723 | 20 | 353 | 1.6 | 8.0 | 0.00 | 0.00 | 0.00 | 56 | 1008.4 |
| 20260505111620 | 20 | 5 | 1.6 | 8.0 | 0.00 | 0.00 | 0.00 | 56 | 1008.3 |
| 20260505111528 | 20 | 5 | 1.6 | 8.0 | 0.00 | 0.00 | 0.00 | 56 | 1008.4 |
| 20260505111427 | 20 | 4 | 1.6 | 8.0 | 0.00 | 0.00 | 0.00 | 57 | 1008.4 |
| 20260505111325 | 20 | 12 | 3.2 | 9.7 | 0.00 | 0.00 | 0.00 | 58 | 1008.5 |
| 20260505111219 | 19 | 55 | 3.2 | 9.7 | 0.00 | 0.00 | 0.00 | 58 | 1008.4 |
| 20260505111123 | 19 | 55 | 3.2 | 9.7 | 0.00 | 0.00 | 0.00 | 58 | 1008.4 |
| 20260505111020 | 19 | 18 | 3.2 | 16.1 | 0.00 | 0.00 | 0.00 | 59 | 1008.3 |
| 20260505110921 | 19 | 32 | 3.2 | 16.1 | 0.00 | 0.00 | 0.00 | 58 | 1008.4 |
| 20260505110821 | 19 | 32 | 3.2 | 16.1 | 0.00 | 0.00 | 0.00 | 59 | 1008.3 |
| 20260505110721 | 19 | 32 | 3.2 | 16.1 | 0.00 | 0.00 | 0.00 | 58 | 1008.4 |
| 20260505110627 | 19 | 33 | 3.2 | 16.1 | 0.00 | 0.00 | 0.00 | 58 | 1008.4 |
| 20260505110528 | 19 | 33 | 3.2 | 16.1 | 0.00 | 0.00 | 0.00 | 58 | 1008.4 |
| 20260505110414 | 19 | 33 | 4.8 | 16.1 | 0.00 | 0.00 | 0.00 | 59 | 1008.3 |
| 20260505110318 | 19 | 29 | 4.8 | 16.1 | 0.00 | 0.00 | 0.00 | 58 | 1008.4 |
| 20260505110214 | 19 | 30 | 4.8 | 16.1 | 0.00 | 0.00 | 0.00 | 59 | 1008.4 |
| 20260505110138 | 19 | 34 | 3.2 | 16.1 | 0.00 | 0.00 | 0.00 | 58 | 1008.4 |
| 20260505102135 | 20 | 98 | 6.4 | 12.9 | 0.00 | 0.00 | 0.00 | 55 | 1008.8 |
| 20260505102032 | 20 | 127 | 6.4 | 12.9 | 0.00 | 0.00 | 0.00 | 55 | 1008.8 |
| 20260505101932 | 20 | 80 | 6.4 | 12.9 | 0.00 | 0.00 | 0.00 | 56 | 1008.8 |
| 20260505101835 | 20 | 75 | 6.4 | 12.9 | 0.00 | 0.00 | 0.00 | 56 | 1008.8 |
| 20260505101734 | 20 | 82 | 6.4 | 12.9 | 0.00 | 0.00 | 0.00 | 55 | 1008.9 |
| 20260505101633 | 20 | 101 | 4.8 | 11.3 | 0.00 | 0.00 | 0.00 | 55 | 1008.8 |
| 20260505101530 | 20 | 125 | 4.8 | 9.7 | 0.00 | 0.00 | 0.00 | 55 | 1008.9 |
| 20260505101430 | 20 | 120 | 4.8 | 9.7 | 0.00 | 0.00 | 0.00 | 55 | 1008.9 |
| 20260505101331 | 20 | 121 | 4.8 | 11.3 | 0.00 | 0.00 | 0.00 | 56 | 1008.9 |
| 20260505101230 | 20 | 90 | 6.4 | 11.3 | 0.00 | 0.00 | 0.00 | 55 | 1008.9 |
| 20260505101124 | 20 | 72 | 6.4 | 12.9 | 0.00 | 0.00 | 0.00 | 55 | 1008.9 |
| 20260505101025 | 20 | 106 | 6.4 | 12.9 | 0.00 | 0.00 | 0.00 | 56 | 1008.9 |
| 20260505100924 | 20 | 82 | 6.4 | 12.9 | 0.00 | 0.00 | 0.00 | 56 | 1008.9 |
| 20260505100826 | 19 | 71 | 6.4 | 12.9 | 0.00 | 0.00 | 0.00 | 57 | 1008.9 |
| 20260505100727 | 19 | 44 | 8.0 | 12.9 | 0.00 | 0.00 | 0.00 | 56 | 1008.9 |
| 20260505100618 | 19 | 93 | 8.0 | 12.9 | 0.00 | 0.00 | 0.00 | 57 | 1009.0 |
| 20260505100523 | 19 | 75 | 8.0 | 12.9 | 0.00 | 0.00 | 0.00 | 56 | 1009.0 |
| 20260505100420 | 19 | 85 | 8.0 | 12.9 | 0.00 | 0.00 | 0.00 | 57 | 1009.0 |
| 20260505100317 | 19 | 62 | 8.0 | 14.5 | 0.00 | 0.00 | 0.00 | 57 | 1009.0 |
| 20260505100220 | 19 | 85 | 8.0 | 17.7 | 0.00 | 0.00 | 0.00 | 57 | 1009.0 |
| 20260505100122 | 19 | 82 | 8.0 | 17.7 | 0.00 | 0.00 | 0.00 | 58 | 1009.0 |
| 20260505100022 | 19 | 73 | 8.0 | 17.7 | 0.00 | 0.00 | 0.00 | 59 | 1009.0 |
| 20260505095907 | 19 | 74 | 8.0 | 17.7 | 0.00 | 0.00 | 0.00 | 58 | 1009.1 |
| 20260505095812 | 19 | 59 | 8.0 | 17.7 | 0.00 | 0.00 | 0.00 | 57 | 1009.1 |
| 20260505095706 | 19 | 71 | 8.0 | 17.7 | 0.00 | 0.00 | 0.00 | 58 | 1009.0 |
| 20260505095604 | 19 | 104 | 9.7 | 17.7 | 0.00 | 0.00 | 0.00 | 57 | 1009.1 |
| 20260505095510 | 19 | 102 | 8.0 | 17.7 | 0.00 | 0.00 | 0.00 | 58 | 1009.1 |
| 20260505095408 | 19 | 71 | 8.0 | 17.7 | 0.00 | 0.00 | 0.00 | 58 | 1009.1 |
| 20260505095312 | 19 | 70 | 6.4 | 17.7 | 0.00 | 0.00 | 0.00 | 59 | 1009.0 |
| 20260505095204 | 19 | 94 | 6.4 | 16.1 | 0.00 | 0.00 | 0.00 | 58 | 1009.1 |
| 20260505095108 | 19 | 103 | 6.4 | 16.1 | 0.00 | 0.00 | 0.00 | 58 | 1009.1 |
| 20260505095013 | 19 | 76 | 4.8 | 16.1 | 0.00 | 0.00 | 0.00 | 57 | 1009.1 |
| 20260505094908 | 19 | 77 | 4.8 | 16.1 | 0.00 | 0.00 | 0.00 | 57 | 1009.1 |
| 20260505094805 | 19 | 94 | 3.2 | 16.1 | 0.00 | 0.00 | 0.00 | 58 | 1009.1 |
| 20260505094706 | 19 | 73 | 3.2 | 12.9 | 0.00 | 0.00 | 0.00 | 58 | 1009.1 |
| 20260505094604 | 19 | 62 | 3.2 | 12.9 | 0.00 | 0.00 | 0.00 | 58 | 1009.1 |
| 20260505094516 | 19 | 72 | 3.2 | 9.7 | 0.00 | 0.00 | 0.00 | 59 | 1009.1 |
| 20260505094406 | 19 | 303 | 3.2 | 9.7 | 0.00 | 0.00 | 0.00 | 59 | 1009.1 |
| 20260505094309 | 19 | 303 | 4.8 | 9.7 | 0.00 | 0.00 | 0.00 | 59 | 1009.1 |
| 20260505094203 | 19 | 31 | 4.8 | 9.7 | 0.00 | 0.00 | 0.00 | 61 | 1009.2 |
| 20260505094058 | 18 | 61 | 6.4 | 12.9 | 0.00 | 0.00 | 0.00 | 60 | 1009.2 |
| 20260505094001 | 18 | 85 | 6.4 | 12.9 | 0.00 | 0.00 | 0.00 | 60 | 1009.2 |
| 20260505093857 | 18 | 91 | 6.4 | 12.9 | 0.00 | 0.00 | 0.00 | 60 | 1009.1 |
| 20260505093755 | 18 | 94 | 6.4 | 12.9 | 0.00 | 0.00 | 0.00 | 59 | 1009.2 |
| 20260505093654 | 18 | 70 | 6.4 | 12.9 | 0.00 | 0.00 | 0.00 | 58 | 1009.2 |
| 20260505093551 | 18 | 76 | 4.8 | 12.9 | 0.00 | 0.00 | 0.00 | 58 | 1009.3 |
| 20260505093452 | 18 | 77 | 4.8 | 12.9 | 0.00 | 0.00 | 0.00 | 59 | 1009.2 |
| 20260505093353 | 18 | 75 | 4.8 | 12.9 | 0.00 | 0.00 | 0.00 | 59 | 1009.2 |
| 20260505093252 | 18 | 105 | 6.4 | 14.5 | 0.00 | 0.00 | 0.00 | 59 | 1009.3 |
| 20260505093145 | 18 | 98 | 4.8 | 14.5 | 0.00 | 0.00 | 0.00 | 61 | 1009.3 |
| 20260505093050 | 18 | 84 | 4.8 | 14.5 | 0.00 | 0.00 | 0.00 | 61 | 1009.2 |
| 20260505092950 | 18 | 82 | 4.8 | 14.5 | 0.00 | 0.00 | 0.00 | 61 | 1009.2 |
| 20260505092844 | 18 | 96 | 4.8 | 14.5 | 0.00 | 0.00 | 0.00 | 60 | 1009.2 |
| 20260505092747 | 18 | 101 | 4.8 | 14.5 | 0.00 | 0.00 | 0.00 | 60 | 1009.3 |
| 20260505092643 | 18 | 83 | 4.8 | 14.5 | 0.00 | 0.00 | 0.00 | 61 | 1009.2 |
| 20260505092541 | 18 | 66 | 4.8 | 14.5 | 0.00 | 0.00 | 0.00 | 60 | 1009.3 |
| 20260505092441 | 18 | 66 | 4.8 | 14.5 | 0.00 | 0.00 | 0.00 | 60 | 1009.3 |
| 20260505092339 | 18 | 78 | 4.8 | 14.5 | 0.00 | 0.00 | 0.00 | 60 | 1009.3 |
| 20260505092135 | 18 | 47 | 4.8 | 12.9 | 0.00 | 0.00 | 0.00 | 60 | 1009.2 |
| 20260505092036 | 18 | 47 | 4.8 | 12.9 | 0.00 | 0.00 | 0.00 | 61 | 1009.3 |
| 20260505091935 | 18 | 55 | 4.8 | 12.9 | 0.00 | 0.00 | 0.00 | 61 | 1009.3 |
| 20260505091837 | 18 | 105 | 4.8 | 12.9 | 0.00 | 0.00 | 0.00 | 61 | 1009.3 |
| 20260505091737 | 18 | 71 | 4.8 | 14.5 | 0.00 | 0.00 | 0.00 | 61 | 1009.4 |
| 20260505091632 | 18 | 99 | 4.8 | 14.5 | 0.00 | 0.00 | 0.00 | 60 | 1009.4 |
| 20260505091533 | 18 | 130 | 4.8 | 14.5 | 0.00 | 0.00 | 0.00 | 60 | 1009.4 |
| 20260505091435 | 18 | 115 | 4.8 | 14.5 | 0.00 | 0.00 | 0.00 | 62 | 1009.4 |
| 20260505091337 | 18 | 106 | 4.8 | 14.5 | 0.00 | 0.00 | 0.00 | 62 | 1009.4 |
| 20260505091134 | 18 | 69 | 4.8 | 14.5 | 0.00 | 0.00 | 0.00 | 62 | 1009.4 |
| 20260505091033 | 18 | 82 | 4.8 | 14.5 | 0.00 | 0.00 | 0.00 | 61 | 1009.4 |
| 20260505090934 | 18 | 82 | 4.8 | 14.5 | 0.00 | 0.00 | 0.00 | 61 | 1009.4 |
| 20260505090831 | 18 | 92 | 4.8 | 14.5 | 0.00 | 0.00 | 0.00 | 61 | 1009.5 |
| 20260505090634 | 18 | 77 | 4.8 | 12.9 | 0.00 | 0.00 | 0.00 | 64 | 1009.5 |
| 20260505090533 | 18 | 78 | 4.8 | 14.5 | 0.00 | 0.00 | 0.00 | 64 | 1009.5 |
| 20260505090432 | 18 | 79 | 4.8 | 14.5 | 0.00 | 0.00 | 0.00 | 62 | 1009.5 |
| 20260505090359 | 18 | 79 | 6.4 | 14.5 | 0.00 | 0.00 | 0.00 | 63 | 1009.5 |
| 20260505090236 | 18 | 99 | 6.4 | 14.5 | 0.00 | 0.00 | 0.00 | 61 | 1009.6 |
| 20260505090155 | 18 | 70 | 6.4 | 14.5 | 0.00 | 0.00 | 0.00 | 61 | 1009.7 |
| 20260505090104 | 18 | 91 | 6.4 | 14.5 | 0.00 | 0.00 | 0.00 | 63 | 1009.7 |
| 20260505090018 | 18 | 90 | 6.4 | 14.5 | 0.00 | 0.00 | 0.00 | 63 | 1009.7 |
| 20260505085840 | 18 | 82 | 6.4 | 14.5 | 0.00 | 0.00 | 0.00 | 63 | 1009.7 |
| 20260505085552 | 18 | 97 | 6.4 | 11.3 | 0.00 | 0.00 | 0.00 | 63 | 1009.7 |
| 20260505085501 | 18 | 87 | 6.4 | 11.3 | 0.00 | 0.00 | 0.00 | 63 | 1009.7 |
| 20260505085422 | 18 | 80 | 6.4 | 11.3 | 0.00 | 0.00 | 0.00 | 62 | 1009.7 |
| 20260505085232 | 18 | 93 | 4.8 | 11.3 | 0.00 | 0.00 | 0.00 | 63 | 1009.8 |
| 20260505085157 | 18 | 90 | 4.8 | 11.3 | 0.00 | 0.00 | 0.00 | 63 | 1009.8 |
| 20260505085058 | 18 | 96 | 4.8 | 11.3 | 0.00 | 0.00 | 0.00 | 62 | 1009.8 |
| 20260505085019 | 18 | 120 | 3.2 | 11.3 | 0.00 | 0.00 | 0.00 | 63 | 1009.7 |
| 20260505084939 | 18 | 58 | 3.2 | 11.3 | 0.00 | 0.00 | 0.00 | 65 | 1009.8 |
| 20260505084620 | 18 | 85 | 3.2 | 11.3 | 0.00 | 0.00 | 0.00 | 66 | 1009.8 |
| 20260505084521 | 18 | 101 | 3.2 | 8.0 | 0.00 | 0.00 | 0.00 | 66 | 1009.8 |
| 20260505084413 | 17 | 99 | 3.2 | 8.0 | 0.00 | 0.00 | 0.00 | 66 | 1009.8 |
| 20260505084312 | 17 | 116 | 3.2 | 8.0 | 0.00 | 0.00 | 0.00 | 66 | 1009.8 |
| 20260505084110 | 17 | 92 | 3.2 | 8.0 | 0.00 | 0.00 | 0.00 | 68 | 1009.9 |
| 20260505084017 | 17 | 81 | 3.2 | 8.0 | 0.00 | 0.00 | 0.00 | 69 | 1009.8 |
| 20260505083903 | 17 | 73 | 1.6 | 8.0 | 0.00 | 0.00 | 0.00 | 69 | 1009.8 |
| 20260505083806 | 17 | 77 | 1.6 | 8.0 | 0.00 | 0.00 | 0.00 | 69 | 1009.9 |
| 20260505083710 | 17 | 104 | 1.6 | 6.4 | 0.00 | 0.00 | 0.00 | 69 | 1009.8 |
| 20260505083603 | 17 | 141 | 3.2 | 6.4 | 0.00 | 0.00 | 0.00 | 69 | 1009.8 |
| 20260505083511 | 17 | 153 | 3.2 | 6.4 | 0.00 | 0.00 | 0.00 | 69 | 1009.8 |
| 20260505083405 | 17 | 158 | 3.2 | 6.4 | 0.00 | 0.00 | 0.00 | 69 | 1009.8 |
| 20260505083303 | 17 | 145 | 3.2 | 8.0 | 0.00 | 0.00 | 0.00 | 69 | 1009.9 |
| 20260505083204 | 17 | 145 | 3.2 | 8.0 | 0.00 | 0.00 | 0.00 | 69 | 1009.9 |
| 20260505083058 | 17 | 141 | 3.2 | 9.7 | 0.00 | 0.00 | 0.00 | 69 | 1009.9 |
| 20260505082957 | 17 | 120 | 3.2 | 9.7 | 0.00 | 0.00 | 0.00 | 69 | 1009.9 |
| 20260505082858 | 17 | 120 | 4.8 | 9.7 | 0.00 | 0.00 | 0.00 | 68 | 1010.0 |
| 20260505082757 | 17 | 118 | 4.8 | 9.7 | 0.00 | 0.00 | 0.00 | 68 | 1010.0 |
| 20260505082659 | 17 | 112 | 4.8 | 9.7 | 0.00 | 0.00 | 0.00 | 68 | 1009.9 |
| 20260505082551 | 17 | 97 | 4.8 | 9.7 | 0.00 | 0.00 | 0.00 | 69 | 1009.9 |
| 20260505082450 | 17 | 104 | 4.8 | 9.7 | 0.00 | 0.00 | 0.00 | 69 | 1009.9 |
| 20260505082349 | 17 | 113 | 4.8 | 9.7 | 0.00 | 0.00 | 0.00 | 70 | 1009.9 |
| 20260505082249 | 17 | 98 | 4.8 | 9.7 | 0.00 | 0.00 | 0.00 | 69 | 1009.9 |
| 20260505082152 | 17 | 66 | 4.8 | 8.0 | 0.00 | 0.00 | 0.00 | 70 | 1009.9 |
| 20260505082050 | 17 | 103 | 4.8 | 11.3 | 0.00 | 0.00 | 0.00 | 70 | 1009.9 |
| 20260505081945 | 17 | 106 | 4.8 | 11.3 | 0.00 | 0.00 | 0.00 | 70 | 1009.9 |
| 20260505081843 | 17 | 96 | 4.8 | 11.3 | 0.00 | 0.00 | 0.00 | 71 | 1009.9 |
| 20260505081743 | 16 | 125 | 4.8 | 11.3 | 0.00 | 0.00 | 0.00 | 71 | 1009.9 |
| 20260505081643 | 16 | 113 | 4.8 | 11.3 | 0.00 | 0.00 | 0.00 | 71 | 1009.9 |
| 20260505081540 | 16 | 106 | 4.8 | 11.3 | 0.00 | 0.00 | 0.00 | 70 | 1009.9 |
| 20260505081438 | 17 | 101 | 4.8 | 11.3 | 0.00 | 0.00 | 0.00 | 70 | 1009.9 |
| 20260505081338 | 16 | 96 | 3.2 | 11.3 | 0.00 | 0.00 | 0.00 | 70 | 1009.9 |
| 20260505081238 | 16 | 111 | 3.2 | 11.3 | 0.00 | 0.00 | 0.00 | 70 | 1009.9 |
| 20260505081140 | 17 | 102 | 3.2 | 11.3 | 0.00 | 0.00 | 0.00 | 70 | 1010.0 |
| 20260505081033 | 17 | 76 | 1.6 | 6.4 | 0.00 | 0.00 | 0.00 | 71 | 1009.9 |
| 20260505080933 | 17 | 96 | 1.6 | 6.4 | 0.00 | 0.00 | 0.00 | 71 | 1010.0 |
| 20260505080835 | 16 | 100 | 1.6 | 6.4 | 0.00 | 0.00 | 0.00 | 72 | 1010.0 |
| 20260505080733 | 16 | 112 | 3.2 | 6.4 | 0.00 | 0.00 | 0.00 | 73 | 1009.9 |
| 20260505080632 | 16 | 111 | 3.2 | 6.4 | 0.00 | 0.00 | 0.00 | 72 | 1010.0 |
| 20260505080529 | 16 | 141 | 3.2 | 6.4 | 0.00 | 0.00 | 0.00 | 72 | 1010.0 |
| 20260505080430 | 16 | 117 | 3.2 | 6.4 | 0.00 | 0.00 | 0.00 | 73 | 1010.0 |
| 20260505080332 | 16 | 58 | 3.2 | 6.4 | 0.00 | 0.00 | 0.00 | 73 | 1010.0 |
| 20260505080234 | 16 | 58 | 3.2 | 6.4 | 0.00 | 0.00 | 0.00 | 73 | 1010.0 |
| 20260505080132 | 16 | 57 | 3.2 | 6.4 | 0.00 | 0.00 | 0.00 | 73 | 1010.1 |
| 20260505080033 | 16 | 55 | 3.2 | 6.4 | 0.00 | 0.00 | 0.00 | 73 | 1010.1 |
| 20260505075927 | 16 | 59 | 3.2 | 6.4 | 0.00 | 0.00 | 0.00 | 73 | 1010.1 |
| 20260505075824 | 16 | 99 | 3.2 | 6.4 | 0.00 | 0.00 | 0.00 | 73 | 1010.1 |
| 20260505075723 | 16 | 92 | 3.2 | 6.4 | 0.00 | 0.00 | 0.00 | 73 | 1010.0 |
| 20260505075623 | 16 | 115 | 3.2 | 6.4 | 0.00 | 0.00 | 0.00 | 73 | 1010.1 |
| 20260505075521 | 16 | 111 | 1.6 | 6.4 | 0.00 | 0.00 | 0.00 | 72 | 1010.1 |
| 20260505075420 | 16 | 112 | 1.6 | 6.4 | 0.00 | 0.00 | 0.00 | 72 | 1010.1 |
| 20260505075320 | 16 | 113 | 1.6 | 6.4 | 0.00 | 0.00 | 0.00 | 73 | 1010.1 |
| 20260505075220 | 16 | 76 | 1.6 | 4.8 | 0.00 | 0.00 | 0.00 | 73 | 1010.1 |
| 20260505075125 | 16 | 329 | 1.6 | 6.4 | 0.00 | 0.00 | 0.00 | 73 | 1010.1 |
| 20260505075017 | 16 | 329 | 1.6 | 6.4 | 0.00 | 0.00 | 0.00 | 74 | 1010.1 |
| 20260505074907 | 16 | 346 | 1.6 | 6.4 | 0.00 | 0.00 | 0.00 | 74 | 1010.2 |
| 20260505074809 | 16 | 347 | 1.6 | 6.4 | 0.00 | 0.00 | 0.00 | 74 | 1010.2 |
| 20260505074606 | 16 | 347 | 1.6 | 6.4 | 0.00 | 0.00 | 0.00 | 75 | 1010.1 |
| 20260505074511 | 16 | 54 | 1.6 | 6.4 | 0.00 | 0.00 | 0.00 | 75 | 1010.2 |
| 20260505074405 | 16 | 62 | 3.2 | 9.7 | 0.00 | 0.00 | 0.00 | 75 | 1010.2 |
| 20260505074305 | 16 | 63 | 3.2 | 9.7 | 0.00 | 0.00 | 0.00 | 75 | 1010.1 |
| 20260505074207 | 15 | 55 | 3.2 | 9.7 | 0.00 | 0.00 | 0.00 | 75 | 1010.2 |
| 20260505074107 | 15 | 51 | 3.2 | 9.7 | 0.00 | 0.00 | 0.00 | 75 | 1010.2 |
| 20260505074000 | 15 | 51 | 3.2 | 9.7 | 0.00 | 0.00 | 0.00 | 75 | 1010.2 |
| 20260505073902 | 15 | 51 | 3.2 | 9.7 | 0.00 | 0.00 | 0.00 | 75 | 1010.3 |
| 20260505073802 | 15 | 52 | 3.2 | 9.7 | 0.00 | 0.00 | 0.00 | 76 | 1010.1 |
| 20260505073708 | 15 | 61 | 3.2 | 9.7 | 0.00 | 0.00 | 0.00 | 77 | 1010.2 |
| 20260505073602 | 15 | 16 | 3.2 | 9.7 | 0.00 | 0.00 | 0.00 | 76 | 1010.2 |
| 20260505073503 | 15 | 325 | 3.2 | 9.7 | 0.00 | 0.00 | 0.00 | 77 | 1010.3 |
| 20260505073401 | 15 | 326 | 1.6 | 6.4 | 0.00 | 0.00 | 0.00 | 76 | 1010.2 |
| 20260505073258 | 15 | 290 | 1.6 | 6.4 | 0.00 | 0.00 | 0.00 | 76 | 1010.3 |
| 20260505073159 | 15 | 317 | 1.6 | 6.4 | 0.00 | 0.00 | 0.00 | 75 | 1010.2 |
| 20260505073058 | 15 | 318 | 3.2 | 8.0 | 0.00 | 0.00 | 0.00 | 76 | 1010.3 |
| 20260505072957 | 15 | 305 | 3.2 | 8.0 | 0.00 | 0.00 | 0.00 | 76 | 1010.3 |
| 20260505072853 | 15 | 287 | 3.2 | 8.0 | 0.00 | 0.00 | 0.00 | 77 | 1010.3 |
| 20260505072757 | 15 | 329 | 3.2 | 8.0 | 0.00 | 0.00 | 0.00 | 78 | 1010.2 |
| 20260505072700 | 15 | 329 | 3.2 | 8.0 | 0.00 | 0.00 | 0.00 | 77 | 1010.3 |
| 20260505072550 | 15 | 327 | 3.2 | 8.0 | 0.00 | 0.00 | 0.00 | 78 | 1010.3 |
| 20260505072450 | 15 | 314 | 3.2 | 8.0 | 0.00 | 0.00 | 0.00 | 79 | 1010.3 |
| 20260505072345 | 15 | 305 | 3.2 | 8.0 | 0.00 | 0.00 | 0.00 | 78 | 1010.3 |
| 20260505072246 | 15 | 305 | 3.2 | 8.0 | 0.00 | 0.00 | 0.00 | 78 | 1010.4 |
| 20260505072144 | 15 | 322 | 1.6 | 8.0 | 0.00 | 0.00 | 0.00 | 78 | 1010.4 |
| 20260505072046 | 15 | 326 | 1.6 | 8.0 | 0.00 | 0.00 | 0.00 | 79 | 1010.4 |
| 20260505071943 | 15 | 322 | 1.6 | 8.0 | 0.00 | 0.00 | 0.00 | 79 | 1010.4 |
| 20260505071843 | 15 | 350 | 1.6 | 8.0 | 0.00 | 0.00 | 0.00 | 80 | 1010.5 |
| 20260505071744 | 15 | 350 | 1.6 | 8.0 | 0.00 | 0.00 | 0.00 | 80 | 1010.4 |
| 20260505071642 | 14 | 18 | 1.6 | 8.0 | 0.00 | 0.00 | 0.00 | 80 | 1010.4 |
| 20260505071542 | 14 | 6 | 1.6 | 9.7 | 0.00 | 0.00 | 0.00 | 79 | 1010.4 |
| 20260505071441 | 14 | 318 | 3.2 | 9.7 | 0.00 | 0.00 | 0.00 | 80 | 1010.4 |
| 20260505071340 | 14 | 334 | 3.2 | 9.7 | 0.00 | 0.00 | 0.00 | 80 | 1010.5 |
| 20260505071239 | 14 | 334 | 3.2 | 9.7 | 0.00 | 0.00 | 0.00 | 80 | 1010.5 |
| 20260505071140 | 14 | 331 | 3.2 | 9.7 | 0.00 | 0.00 | 0.00 | 80 | 1010.4 |
| 20260505071039 | 14 | 331 | 3.2 | 9.7 | 0.00 | 0.00 | 0.00 | 80 | 1010.5 |
| 20260505070937 | 14 | 330 | 3.2 | 9.7 | 0.00 | 0.00 | 0.00 | 80 | 1010.4 |
| 20260505070837 | 14 | 329 | 4.8 | 9.7 | 0.00 | 0.00 | 0.00 | 81 | 1010.4 |
| 20260505070733 | 14 | 329 | 4.8 | 9.7 | 0.00 | 0.00 | 0.00 | 81 | 1010.4 |
| 20260505070634 | 14 | 327 | 4.8 | 9.7 | 0.00 | 0.00 | 0.00 | 80 | 1010.4 |
| 20260505070534 | 14 | 333 | 4.8 | 9.7 | 0.00 | 0.00 | 0.00 | 80 | 1010.4 |
| 20260505070435 | 14 | 326 | 3.2 | 9.7 | 0.00 | 0.00 | 0.00 | 81 | 1010.4 |
| 20260505070339 | 13 | 307 | 3.2 | 6.4 | 0.00 | 0.00 | 0.00 | 81 | 1010.5 |
| 20260505070232 | 13 | 302 | 3.2 | 6.4 | 0.00 | 0.00 | 0.00 | 81 | 1010.5 |
| 20260505070134 | 13 | 320 | 3.2 | 6.4 | 0.00 | 0.00 | 0.00 | 81 | 1010.5 |
| 20260505070037 | 13 | 330 | 3.2 | 6.4 | 0.00 | 0.00 | 0.00 | 80 | 1010.4 |
| 20260505065935 | 13 | 329 | 1.6 | 6.4 | 0.00 | 0.00 | 0.00 | 81 | 1010.4 |
| 20260505065837 | 13 | 327 | 1.6 | 6.4 | 0.00 | 0.00 | 0.00 | 81 | 1010.4 |
| 20260505065730 | 13 | 329 | 1.6 | 6.4 | 0.00 | 0.00 | 0.00 | 81 | 1010.4 |
| 20260505065630 | 13 | 324 | 1.6 | 6.4 | 0.00 | 0.00 | 0.00 | 81 | 1010.5 |
| 20260505065530 | 13 | 324 | 1.6 | 6.4 | 0.00 | 0.00 | 0.00 | 81 | 1010.5 |
| 20260505065431 | 13 | 324 | 1.6 | 6.4 | 0.00 | 0.00 | 0.00 | 81 | 1010.4 |
| 20260505065329 | 13 | 324 | 1.6 | 6.4 | 0.00 | 0.00 | 0.00 | 81 | 1010.4 |
| 20260505065231 | 13 | 331 | 1.6 | 6.4 | 0.00 | 0.00 | 0.00 | 81 | 1010.5 |
| 20260505065144 | 13 | 329 | 1.6 | 6.4 | 0.00 | 0.00 | 0.00 | 81 | 1010.4 |
| 20260505065107 | 13 | 331 | 1.6 | 6.4 | 0.00 | 0.00 | 0.00 | 82 | 1010.5 |
| 20260505065022 | 13 | 331 | 1.6 | 8.0 | 0.00 | 0.00 | 0.00 | 81 | 1010.5 |
| 20260505064949 | 13 | 331 | 1.6 | 8.0 | 0.00 | 0.00 | 0.00 | 81 | 1010.5 |
| 20260505064918 | 13 | 331 | 1.6 | 8.0 | 0.00 | 0.00 | 0.00 | 81 | 1010.5 |
| 20260505064615 | 13 | 331 | 3.2 | 8.0 | 0.00 | 0.00 | 0.00 | 81 | 1010.5 |
| 20260505064519 | 13 | 331 | 3.2 | 8.0 | 0.00 | 0.00 | 0.00 | 81 | 1010.5 |
| 20260505064415 | 13 | 331 | 3.2 | 8.0 | 0.00 | 0.00 | 0.00 | 81 | 1010.5 |
| 20260505064316 | 13 | 331 | 3.2 | 8.0 | 0.00 | 0.00 | 0.00 | 81 | 1010.5 |
| 20260505064215 | 13 | 331 | 3.2 | 8.0 | 0.00 | 0.00 | 0.00 | 81 | 1010.5 |
| 20260505064113 | 13 | 329 | 3.2 | 8.0 | 0.00 | 0.00 | 0.00 | 82 | 1010.5 |
| 20260505064017 | 13 | 331 | 1.6 | 8.0 | 0.00 | 0.00 | 0.00 | 82 | 1010.6 |
| 20260505063913 | 13 | 329 | 1.6 | 8.0 | 0.00 | 0.00 | 0.00 | 81 | 1010.5 |
| 20260505063818 | 13 | 329 | 1.6 | 8.0 | 0.00 | 0.00 | 0.00 | 81 | 1010.6 |
| 20260505063714 | 13 | 330 | 1.6 | 8.0 | 0.00 | 0.00 | 0.00 | 81 | 1010.6 |
| 20260505063608 | 13 | 328 | 1.6 | 8.0 | 0.00 | 0.00 | 0.00 | 81 | 1010.6 |
| 20260505063520 | 13 | 333 | 1.6 | 6.4 | 0.00 | 0.00 | 0.00 | 82 | 1010.6 |
| 20260505063413 | 13 | 333 | 1.6 | 6.4 | 0.00 | 0.00 | 0.00 | 82 | 1010.5 |
| 20260505063307 | 13 | 335 | 1.6 | 6.4 | 0.00 | 0.00 | 0.00 | 82 | 1010.6 |
| 20260505063207 | 13 | 335 | 1.6 | 6.4 | 0.00 | 0.00 | 0.00 | 82 | 1010.6 |
| 20260505063106 | 13 | 335 | 1.6 | 6.4 | 0.00 | 0.00 | 0.00 | 82 | 1010.6 |
| 20260505063010 | 13 | 6 | 1.6 | 8.0 | 0.00 | 0.00 | 0.00 | 82 | 1010.6 |
| 20260505062908 | 13 | 6 | 1.6 | 8.0 | 0.00 | 0.00 | 0.00 | 81 | 1010.6 |
| 20260505062808 | 13 | 6 | 1.6 | 8.0 | 0.00 | 0.00 | 0.00 | 82 | 1010.6 |
| 20260505062707 | 13 | 6 | 1.6 | 8.0 | 0.00 | 0.00 | 0.00 | 82 | 1010.6 |
| 20260505062606 | 13 | 329 | 1.6 | 8.0 | 0.00 | 0.00 | 0.00 | 82 | 1010.6 |
| 20260505062514 | 13 | 329 | 1.6 | 8.0 | 0.00 | 0.00 | 0.00 | 82 | 1010.6 |
| 20260505062405 | 13 | 338 | 1.6 | 8.0 | 0.00 | 0.00 | 0.00 | 82 | 1010.7 |
| 20260505062308 | 13 | 42 | 1.6 | 8.0 | 0.00 | 0.00 | 0.00 | 82 | 1010.6 |
| 20260505062206 | 13 | 67 | 1.6 | 8.0 | 0.00 | 0.00 | 0.00 | 82 | 1010.7 |
| 20260505062104 | 13 | 67 | 1.6 | 8.0 | 0.00 | 0.00 | 0.00 | 83 | 1010.6 |
| 20260505062005 | 13 | 40 | 1.6 | 8.0 | 0.00 | 0.00 | 0.00 | 83 | 1010.6 |
| 20260505061905 | 13 | 326 | 1.6 | 8.0 | 0.00 | 0.00 | 0.00 | 83 | 1010.6 |
| 20260505061807 | 13 | 326 | 1.6 | 8.0 | 0.00 | 0.00 | 0.00 | 83 | 1010.6 |
| 20260505061703 | 13 | 325 | 1.6 | 8.0 | 0.00 | 0.00 | 0.00 | 82 | 1010.7 |
| 20260505061604 | 13 | 323 | 0.0 | 8.0 | 0.00 | 0.00 | 0.00 | 83 | 1010.7 |
| 20260505061459 | 13 | 333 | 0.0 | 4.8 | 0.00 | 0.00 | 0.00 | 83 | 1010.7 |
| 20260505061426 | 13 | 333 | 0.0 | 4.8 | 0.00 | 0.00 | 0.00 | 82 | 1010.7 |
| 20260505061358 | 13 | 333 | 0.0 | 4.8 | 0.00 | 0.00 | 0.00 | 83 | 1010.7 |
| 20260505061318 | 13 | 21 | 0.0 | 4.8 | 0.00 | 0.00 | 0.00 | 83 | 1010.7 |
| 20260505061238 | 13 | 21 | 1.6 | 4.8 | 0.00 | 0.00 | 0.00 | 82 | 1010.7 |
| 20260505061156 | 13 | 21 | 1.6 | 4.8 | 0.00 | 0.00 | 0.00 | 82 | 1010.6 |
| 20260505061119 | 13 | 21 | 1.6 | 4.8 | 0.00 | 0.00 | 0.00 | 82 | 1010.7 |
| 20260505061045 | 13 | 14 | 1.6 | 4.8 | 0.00 | 0.00 | 0.00 | 82 | 1010.7 |
| 20260505061009 | 13 | 338 | 1.6 | 6.4 | 0.00 | 0.00 | 0.00 | 83 | 1010.7 |
| 20260505060724 | 13 | 337 | 1.6 | 6.4 | 0.00 | 0.00 | 0.00 | 83 | 1010.7 |
| 20260505060639 | 13 | 337 | 1.6 | 8.0 | 0.00 | 0.00 | 0.00 | 83 | 1010.7 |
| 20260505060600 | 13 | 337 | 1.6 | 8.0 | 0.00 | 0.00 | 0.00 | 83 | 1010.7 |
| 20260505060529 | 13 | 336 | 1.6 | 8.0 | 0.00 | 0.00 | 0.00 | 83 | 1010.7 |
| 20260505060447 | 13 | 333 | 1.6 | 8.0 | 0.00 | 0.00 | 0.00 | 83 | 1010.8 |
| 20260505060149 | 13 | 332 | 1.6 | 8.0 | 0.00 | 0.00 | 0.00 | 83 | 1010.8 |
| 20260505060059 | 13 | 332 | 1.6 | 8.0 | 0.00 | 0.00 | 0.00 | 83 | 1010.8 |
| 20260505060011 | 13 | 248 | 1.6 | 8.0 | 0.00 | 0.00 | 0.00 | 82 | 1010.8 |
| 20260505055931 | 13 | 239 | 1.6 | 8.0 | 0.00 | 0.00 | 0.00 | 82 | 1010.8 |
| 20260505055854 | 13 | 253 | 1.6 | 8.0 | 0.00 | 0.00 | 0.00 | 82 | 1010.8 |
| 20260505055536 | 13 | 217 | 1.6 | 6.4 | 0.00 | 0.00 | 0.00 | 83 | 1010.9 |
| 20260505055431 | 13 | 253 | 1.6 | 6.4 | 0.00 | 0.00 | 0.00 | 83 | 1010.8 |
| 20260505055333 | 13 | 253 | 1.6 | 9.7 | 0.00 | 0.00 | 0.00 | 83 | 1010.8 |
| 20260505055231 | 13 | 253 | 1.6 | 9.7 | 0.00 | 0.00 | 0.00 | 83 | 1010.8 |
| 20260505055132 | 13 | 222 | 3.2 | 9.7 | 0.00 | 0.00 | 0.00 | 83 | 1010.8 |
| 20260505055033 | 13 | 322 | 3.2 | 9.7 | 0.00 | 0.00 | 0.00 | 83 | 1010.8 |
| 20260505054940 | 13 | 322 | 3.2 | 9.7 | 0.00 | 0.00 | 0.00 | 83 | 1010.8 |
| 20260505054846 | 13 | 321 | 3.2 | 9.7 | 0.00 | 0.00 | 0.00 | 83 | 1010.8 |
| 20260505054802 | 13 | 313 | 3.2 | 9.7 | 0.00 | 0.00 | 0.00 | 83 | 1010.7 |
| 20260505054710 | 13 | 313 | 3.2 | 9.7 | 0.00 | 0.00 | 0.00 | 82 | 1010.7 |
| 20260505054625 | 13 | 315 | 3.2 | 9.7 | 0.00 | 0.00 | 0.00 | 82 | 1010.8 |
| 20260505054543 | 13 | 315 | 3.2 | 9.7 | 0.00 | 0.00 | 0.00 | 82 | 1010.6 |
| 20260505054504 | 13 | 326 | 1.6 | 9.7 | 0.00 | 0.00 | 0.00 | 82 | 1010.7 |
| 20260505054417 | 13 | 331 | 1.6 | 9.7 | 0.00 | 0.00 | 0.00 | 82 | 1010.7 |
| 20260505054121 | 13 | 318 | 1.6 | 8.0 | 0.00 | 0.00 | 0.00 | 82 | 1010.7 |
| 20260505054022 | 13 | 293 | 1.6 | 8.0 | 0.00 | 0.00 | 0.00 | 82 | 1010.7 |
| 20260505053918 | 13 | 285 | 1.6 | 8.0 | 0.00 | 0.00 | 0.00 | 83 | 1010.7 |
| 20260505053815 | 13 | 320 | 1.6 | 8.0 | 0.00 | 0.00 | 0.00 | 83 | 1010.7 |
| 20260505053716 | 13 | 320 | 1.6 | 8.0 | 0.00 | 0.00 | 0.00 | 83 | 1010.7 |
| 20260505053616 | 13 | 321 | 1.6 | 9.7 | 0.00 | 0.00 | 0.00 | 83 | 1010.7 |
| 20260505053518 | 13 | 279 | 1.6 | 9.7 | 0.00 | 0.00 | 0.00 | 83 | 1010.7 |
| 20260505053413 | 13 | 276 | 1.6 | 9.7 | 0.00 | 0.00 | 0.00 | 83 | 1010.7 |
| 20260505053308 | 12 | 267 | 1.6 | 9.7 | 0.00 | 0.00 | 0.00 | 83 | 1010.6 |
| 20260505053207 | 12 | 292 | 1.6 | 9.7 | 0.00 | 0.00 | 0.00 | 84 | 1010.6 |
| 20260505053109 | 12 | 314 | 1.6 | 9.7 | 0.00 | 0.00 | 0.00 | 84 | 1010.7 |
| 20260505053019 | 12 | 324 | 3.2 | 9.7 | 0.00 | 0.00 | 0.00 | 85 | 1010.7 |
| 20260505052910 | 12 | 324 | 3.2 | 11.3 | 0.00 | 0.00 | 0.00 | 84 | 1010.6 |
| 20260505052804 | 12 | 324 | 1.6 | 11.3 | 0.00 | 0.00 | 0.00 | 84 | 1010.6 |
| 20260505052709 | 12 | 326 | 1.6 | 11.3 | 0.00 | 0.00 | 0.00 | 84 | 1010.6 |
| 20260505052608 | 12 | 325 | 3.2 | 11.3 | 0.00 | 0.00 | 0.00 | 85 | 1010.7 |
| 20260505052510 | 12 | 320 | 3.2 | 11.3 | 0.00 | 0.00 | 0.00 | 84 | 1010.7 |
| 20260505052405 | 12 | 320 | 3.2 | 11.3 | 0.00 | 0.00 | 0.00 | 84 | 1010.6 |
| 20260505052307 | 12 | 320 | 3.2 | 11.3 | 0.00 | 0.00 | 0.00 | 84 | 1010.6 |
| 20260505052205 | 12 | 326 | 3.2 | 11.3 | 0.00 | 0.00 | 0.00 | 84 | 1010.6 |
| 20260505052102 | 12 | 321 | 3.2 | 11.3 | 0.00 | 0.00 | 0.00 | 84 | 1010.6 |
| 20260505052005 | 12 | 326 | 1.6 | 11.3 | 0.00 | 0.00 | 0.00 | 84 | 1010.6 |
| 20260505051900 | 12 | 327 | 1.6 | 9.7 | 0.00 | 0.00 | 0.00 | 84 | 1010.6 |
| 20260505051759 | 12 | 333 | 1.6 | 9.7 | 0.00 | 0.00 | 0.00 | 84 | 1010.6 |
| 20260505051658 | 12 | 7 | 1.6 | 9.7 | 0.00 | 0.00 | 0.00 | 84 | 1010.5 |
| 20260505051558 | 12 | 15 | 1.6 | 9.7 | 0.00 | 0.00 | 0.00 | 84 | 1010.5 |
| 20260505051456 | 12 | 331 | 1.6 | 9.7 | 0.00 | 0.00 | 0.00 | 84 | 1010.6 |
| 20260505051356 | 12 | 331 | 1.6 | 9.7 | 0.00 | 0.00 | 0.00 | 84 | 1010.4 |
| 20260505051252 | 12 | 330 | 1.6 | 8.0 | 0.00 | 0.00 | 0.00 | 85 | 1010.5 |
| 20260505051151 | 12 | 332 | 1.6 | 4.8 | 0.00 | 0.00 | 0.00 | 85 | 1010.6 |
| 20260505051047 | 12 | 332 | 1.6 | 6.4 | 0.00 | 0.00 | 0.00 | 85 | 1010.6 |
| 20260505050948 | 12 | 327 | 1.6 | 8.0 | 0.00 | 0.00 | 0.00 | 85 | 1010.6 |
| 20260505050839 | 12 | 328 | 1.6 | 8.0 | 0.00 | 0.00 | 0.00 | 85 | 1010.5 |
| 20260505050742 | 12 | 328 | 0.0 | 8.0 | 0.00 | 0.00 | 0.00 | 85 | 1010.6 |
| 20260505050643 | 12 | 327 | 0.0 | 8.0 | 0.00 | 0.00 | 0.00 | 85 | 1010.6 |
| 20260505050539 | 12 | 328 | 0.0 | 8.0 | 0.00 | 0.00 | 0.00 | 85 | 1010.5 |
| 20260505050437 | 12 | 338 | 0.0 | 8.0 | 0.00 | 0.00 | 0.00 | 85 | 1010.6 |
| 20260505050339 | 12 | 346 | 0.0 | 8.0 | 0.00 | 0.00 | 0.00 | 85 | 1010.6 |
| 20260505050237 | 12 | 346 | 0.0 | 8.0 | 0.00 | 0.00 | 0.00 | 85 | 1010.6 |
| 20260505050135 | 12 | 346 | 0.0 | 8.0 | 0.00 | 0.00 | 0.00 | 86 | 1010.6 |
| 20260505041516 | 12 | 328 | 9.7 | 19.3 | 0.00 | 0.00 | 0.00 | 85 | 1010.6 |
| 20260505041410 | 12 | 325 | 11.3 | 19.3 | 0.00 | 0.00 | 0.00 | 85 | 1010.7 |
| 20260505041305 | 12 | 330 | 11.3 | 19.3 | 0.00 | 0.00 | 0.00 | 84 | 1010.7 |
| 20260505041205 | 12 | 325 | 11.3 | 19.3 | 0.00 | 0.00 | 0.00 | 84 | 1010.7 |
| 20260505041019 | 12 | 319 | 11.3 | 19.3 | 0.00 | 0.00 | 0.00 | 84 | 1010.8 |
| 20260505040900 | 12 | 314 | 11.3 | 19.3 | 0.00 | 0.00 | 0.00 | 84 | 1010.7 |
| 20260505040802 | 12 | 316 | 11.3 | 19.3 | 0.00 | 0.00 | 0.00 | 84 | 1010.8 |
| 20260505040717 | 12 | 349 | 12.9 | 20.9 | 0.00 | 0.00 | 0.00 | 84 | 1010.8 |
| 20260505040629 | 12 | 338 | 12.9 | 20.9 | 0.00 | 0.00 | 0.00 | 84 | 1010.8 |
| 20260505040545 | 12 | 319 | 12.9 | 20.9 | 0.00 | 0.00 | 0.00 | 84 | 1010.8 |
| 20260505040506 | 12 | 320 | 12.9 | 20.9 | 0.00 | 0.00 | 0.00 | 84 | 1010.8 |
| 20260505040425 | 12 | 324 | 12.9 | 20.9 | 0.00 | 0.00 | 0.00 | 84 | 1010.8 |
| 20260505040350 | 12 | 314 | 12.9 | 20.9 | 0.00 | 0.00 | 0.00 | 84 | 1010.7 |
| 20260505040057 | 12 | 326 | 12.9 | 22.5 | 0.00 | 0.00 | 0.00 | 84 | 1010.8 |
| 20260505035956 | 12 | 315 | 12.9 | 22.5 | 0.00 | 0.00 | 0.00 | 84 | 1010.9 |
| 20260505035849 | 12 | 324 | 12.9 | 22.5 | 0.00 | 0.00 | 0.00 | 84 | 1010.8 |
| 20260505035751 | 12 | 324 | 11.3 | 22.5 | 0.00 | 0.00 | 0.00 | 84 | 1010.8 |
| 20260505035649 | 12 | 320 | 11.3 | 22.5 | 0.00 | 0.00 | 0.00 | 84 | 1010.8 |
| 20260505035552 | 12 | 328 | 11.3 | 22.5 | 0.00 | 0.00 | 0.00 | 84 | 1010.8 |
| 20260505035452 | 12 | 320 | 11.3 | 22.5 | 0.00 | 0.00 | 0.00 | 84 | 1010.8 |
| 20260505035348 | 12 | 318 | 11.3 | 22.5 | 0.00 | 0.00 | 0.00 | 84 | 1010.8 |
| 20260505035249 | 12 | 319 | 11.3 | 22.5 | 0.00 | 0.00 | 0.00 | 84 | 1010.8 |
| 20260505035150 | 12 | 329 | 9.7 | 22.5 | 0.00 | 0.00 | 0.00 | 84 | 1010.8 |
| 20260505035050 | 12 | 329 | 9.7 | 20.9 | 0.00 | 0.00 | 0.00 | 84 | 1010.8 |
| 20260505034950 | 12 | 331 | 9.7 | 20.9 | 0.00 | 0.00 | 0.00 | 84 | 1010.8 |
| 20260505034849 | 12 | 340 | 9.7 | 20.9 | 0.00 | 0.00 | 0.00 | 84 | 1010.8 |
| 20260505034751 | 12 | 323 | 8.0 | 20.9 | 0.00 | 0.00 | 0.00 | 84 | 1010.8 |
| 20260505034650 | 12 | 338 | 8.0 | 20.9 | 0.00 | 0.00 | 0.00 | 84 | 1010.8 |
| 20260505034551 | 12 | 335 | 8.0 | 20.9 | 0.00 | 0.00 | 0.00 | 84 | 1010.8 |
| 20260505034452 | 12 | 329 | 8.0 | 17.7 | 0.00 | 0.00 | 0.00 | 84 | 1010.9 |
| 20260505034352 | 12 | 322 | 8.0 | 17.7 | 0.00 | 0.00 | 0.00 | 83 | 1010.8 |
| 20260505034251 | 12 | 343 | 8.0 | 17.7 | 0.00 | 0.00 | 0.00 | 83 | 1010.8 |
| 20260505034209 | 12 | 325 | 6.4 | 17.7 | 0.00 | 0.00 | 0.00 | 84 | 1010.9 |
| 20260505034122 | 12 | 319 | 6.4 | 16.1 | 0.00 | 0.00 | 0.00 | 84 | 1010.9 |
| 20260505034031 | 12 | 328 | 6.4 | 16.1 | 0.00 | 0.00 | 0.00 | 83 | 1010.9 |
| 20260505033959 | 12 | 324 | 6.4 | 16.1 | 0.00 | 0.00 | 0.00 | 83 | 1010.9 |
| 20260505033920 | 12 | 333 | 6.4 | 16.1 | 0.00 | 0.00 | 0.00 | 83 | 1010.9 |
| 20260505033842 | 12 | 319 | 6.4 | 16.1 | 0.00 | 0.00 | 0.00 | 83 | 1010.9 |
| 20260505033546 | 12 | 329 | 6.4 | 16.1 | 0.00 | 0.00 | 0.00 | 83 | 1011.0 |
| 20260505033447 | 12 | 322 | 4.8 | 14.5 | 0.00 | 0.00 | 0.00 | 83 | 1011.0 |
| 20260505033345 | 12 | 320 | 4.8 | 14.5 | 0.00 | 0.00 | 0.00 | 83 | 1011.0 |
| 20260505033249 | 12 | 332 | 4.8 | 14.5 | 0.00 | 0.00 | 0.00 | 83 | 1011.1 |
| 20260505033144 | 12 | 326 | 4.8 | 14.5 | 0.00 | 0.00 | 0.00 | 83 | 1011.1 |
| 20260505033048 | 12 | 332 | 4.8 | 14.5 | 0.00 | 0.00 | 0.00 | 83 | 1011.1 |
| 20260505032942 | 12 | 324 | 4.8 | 14.5 | 0.00 | 0.00 | 0.00 | 83 | 1011.0 |
| 20260505032840 | 12 | 324 | 4.8 | 12.9 | 0.00 | 0.00 | 0.00 | 82 | 1011.0 |
| 20260505032741 | 12 | 333 | 3.2 | 12.9 | 0.00 | 0.00 | 0.00 | 82 | 1011.0 |
| 20260505032642 | 12 | 1 | 4.8 | 12.9 | 0.00 | 0.00 | 0.00 | 82 | 1011.0 |
| 20260505032542 | 12 | 330 | 6.4 | 17.7 | 0.00 | 0.00 | 0.00 | 82 | 1011.0 |
| 20260505032440 | 12 | 328 | 6.4 | 17.7 | 0.00 | 0.00 | 0.00 | 82 | 1011.1 |
| 20260505032338 | 12 | 324 | 6.4 | 17.7 | 0.00 | 0.00 | 0.00 | 82 | 1011.0 |
| 20260505032236 | 12 | 331 | 8.0 | 17.7 | 0.00 | 0.00 | 0.00 | 82 | 1011.0 |
| 20260505032136 | 12 | 319 | 8.0 | 17.7 | 0.00 | 0.00 | 0.00 | 82 | 1011.1 |
| 20260505032039 | 12 | 322 | 8.0 | 17.7 | 0.00 | 0.00 | 0.00 | 82 | 1011.0 |
| 20260505031941 | 12 | 331 | 8.0 | 17.7 | 0.00 | 0.00 | 0.00 | 82 | 1011.0 |
| 20260505031838 | 12 | 329 | 9.7 | 17.7 | 0.00 | 0.00 | 0.00 | 82 | 1011.0 |
| 20260505031740 | 12 | 328 | 11.3 | 19.3 | 0.00 | 0.00 | 0.00 | 82 | 1011.0 |
| 20260505031640 | 12 | 325 | 11.3 | 19.3 | 0.00 | 0.00 | 0.00 | 82 | 1011.1 |
| 20260505031540 | 12 | 325 | 9.7 | 19.3 | 0.00 | 0.00 | 0.00 | 81 | 1011.0 |
| 20260505031442 | 12 | 324 | 11.3 | 19.3 | 0.00 | 0.00 | 0.00 | 81 | 1011.0 |
| 20260505031342 | 12 | 329 | 11.3 | 19.3 | 0.00 | 0.00 | 0.00 | 81 | 1011.1 |
| 20260505031233 | 12 | 324 | 11.3 | 19.3 | 0.00 | 0.00 | 0.00 | 81 | 1011.1 |
| 20260505031134 | 12 | 321 | 11.3 | 20.9 | 0.00 | 0.00 | 0.00 | 81 | 1011.0 |
| 20260505031036 | 12 | 312 | 11.3 | 20.9 | 0.00 | 0.00 | 0.00 | 81 | 1011.0 |
| 20260505030932 | 12 | 321 | 11.3 | 20.9 | 0.00 | 0.00 | 0.00 | 81 | 1011.0 |
| 20260505030837 | 12 | 330 | 12.9 | 20.9 | 0.00 | 0.00 | 0.00 | 81 | 1011.0 |
| 20260505030736 | 12 | 320 | 11.3 | 20.9 | 0.00 | 0.00 | 0.00 | 81 | 1011.0 |
| 20260505030634 | 12 | 331 | 12.9 | 20.9 | 0.00 | 0.00 | 0.00 | 81 | 1011.0 |
| 20260505030548 | 12 | 326 | 12.9 | 20.9 | 0.00 | 0.00 | 0.00 | 81 | 1011.0 |
| 20260505030432 | 12 | 326 | 12.9 | 20.9 | 0.00 | 0.00 | 0.00 | 81 | 1011.0 |
| 20260505030332 | 12 | 331 | 12.9 | 20.9 | 0.00 | 0.00 | 0.00 | 81 | 1010.9 |
| 20260505030235 | 12 | 332 | 12.9 | 20.9 | 0.00 | 0.00 | 0.00 | 81 | 1011.0 |
| 20260505030137 | 12 | 324 | 11.3 | 20.9 | 0.00 | 0.00 | 0.00 | 81 | 1011.0 |
| 20260505030035 | 12 | 317 | 11.3 | 20.9 | 0.00 | 0.00 | 0.00 | 81 | 1011.0 |
| 20260505025931 | 12 | 331 | 11.3 | 20.9 | 0.00 | 0.00 | 0.00 | 81 | 1011.1 |
| 20260505025828 | 12 | 321 | 11.3 | 20.9 | 0.00 | 0.00 | 0.00 | 81 | 1011.1 |
| 20260505025750 | 12 | 324 | 11.3 | 20.9 | 0.00 | 0.00 | 0.00 | 81 | 1011.0 |
| 20260505025718 | 12 | 314 | 11.3 | 20.9 | 0.00 | 0.00 | 0.00 | 81 | 1011.0 |
| 20260505025636 | 12 | 341 | 11.3 | 20.9 | 0.00 | 0.00 | 0.00 | 81 | 1011.1 |
| 20260505025542 | 12 | 327 | 11.3 | 19.3 | 0.00 | 0.00 | 0.00 | 81 | 1011.1 |
| 20260505025459 | 12 | 333 | 11.3 | 19.3 | 0.00 | 0.00 | 0.00 | 81 | 1011.1 |
| 20260505025425 | 12 | 330 | 11.3 | 19.3 | 0.00 | 0.00 | 0.00 | 81 | 1011.0 |
| 20260505025343 | 12 | 322 | 11.3 | 19.3 | 0.00 | 0.00 | 0.00 | 81 | 1011.1 |
| 20260505025030 | 12 | 332 | 12.9 | 19.3 | 0.00 | 0.00 | 0.00 | 81 | 1011.1 |
| 20260505024940 | 12 | 333 | 12.9 | 19.3 | 0.00 | 0.00 | 0.00 | 81 | 1011.2 |
| 20260505024906 | 12 | 331 | 12.9 | 19.3 | 0.00 | 0.00 | 0.00 | 80 | 1011.2 |
| 20260505024827 | 12 | 325 | 12.9 | 19.3 | 0.00 | 0.00 | 0.00 | 80 | 1011.1 |
| 20260505024755 | 12 | 329 | 12.9 | 19.3 | 0.00 | 0.00 | 0.00 | 80 | 1011.1 |
| 20260505024659 | 12 | 307 | 12.9 | 19.3 | 0.00 | 0.00 | 0.00 | 80 | 1011.1 |
| 20260505024612 | 12 | 314 | 12.9 | 19.3 | 0.00 | 0.00 | 0.00 | 80 | 1011.1 |
| 20260505024539 | 12 | 320 | 12.9 | 19.3 | 0.00 | 0.00 | 0.00 | 80 | 1011.2 |
| 20260505024241 | 12 | 324 | 12.9 | 20.9 | 0.00 | 0.00 | 0.00 | 80 | 1011.1 |
| 20260505024205 | 12 | 331 | 12.9 | 20.9 | 0.00 | 0.00 | 0.00 | 80 | 1011.1 |
| 20260505024122 | 12 | 327 | 12.9 | 20.9 | 0.00 | 0.00 | 0.00 | 80 | 1011.1 |
| 20260505024030 | 12 | 324 | 12.9 | 20.9 | 0.00 | 0.00 | 0.00 | 80 | 1011.1 |
| 20260505023951 | 12 | 335 | 12.9 | 20.9 | 0.00 | 0.00 | 0.00 | 80 | 1011.2 |
| 20260505023906 | 12 | 321 | 12.9 | 20.9 | 0.00 | 0.00 | 0.00 | 80 | 1011.2 |
| 20260505023826 | 12 | 326 | 12.9 | 20.9 | 0.00 | 0.00 | 0.00 | 80 | 1011.2 |
| 20260505023739 | 12 | 327 | 12.9 | 20.9 | 0.00 | 0.00 | 0.00 | 80 | 1011.2 |
| 20260505023650 | 12 | 326 | 12.9 | 20.9 | 0.00 | 0.00 | 0.00 | 80 | 1011.2 |
| 20260505023615 | 12 | 329 | 12.9 | 20.9 | 0.00 | 0.00 | 0.00 | 80 | 1011.2 |
| 20260505023536 | 12 | 320 | 11.3 | 20.9 | 0.00 | 0.00 | 0.00 | 80 | 1011.2 |
| 20260505023503 | 12 | 322 | 12.9 | 20.9 | 0.00 | 0.00 | 0.00 | 80 | 1011.3 |
| 20260505023202 | 12 | 327 | 12.9 | 20.9 | 0.00 | 0.00 | 0.00 | 80 | 1011.3 |
| 20260505023111 | 12 | 319 | 12.9 | 20.9 | 0.00 | 0.00 | 0.00 | 80 | 1011.2 |
| 20260505023028 | 12 | 321 | 11.3 | 20.9 | 0.00 | 0.00 | 0.00 | 80 | 1011.3 |
| 20260505022733 | 12 | 321 | 11.3 | 20.9 | 0.00 | 0.00 | 0.00 | 80 | 1011.3 |
| 20260505022700 | 12 | 314 | 11.3 | 20.9 | 0.00 | 0.00 | 0.00 | 81 | 1011.3 |
| 20260505022614 | 12 | 321 | 11.3 | 20.9 | 0.00 | 0.00 | 0.00 | 81 | 1011.2 |
| 20260505022520 | 12 | 321 | 11.3 | 20.9 | 0.00 | 0.00 | 0.00 | 81 | 1011.3 |
| 20260505022440 | 13 | 319 | 11.3 | 20.9 | 0.00 | 0.00 | 0.00 | 81 | 1011.3 |
| 20260505022403 | 13 | 327 | 11.3 | 20.9 | 0.00 | 0.00 | 0.00 | 81 | 1011.3 |
| 20260505022328 | 13 | 311 | 11.3 | 20.9 | 0.00 | 0.00 | 0.00 | 81 | 1011.4 |
| 20260505022023 | 13 | 318 | 11.3 | 20.9 | 0.00 | 0.00 | 0.00 | 81 | 1011.4 |
| 20260505021922 | 13 | 321 | 11.3 | 20.9 | 0.00 | 0.00 | 0.00 | 80 | 1011.3 |
| 20260505021821 | 13 | 316 | 11.3 | 20.9 | 0.00 | 0.00 | 0.00 | 80 | 1011.3 |
| 20260505021726 | 13 | 337 | 11.3 | 20.9 | 0.00 | 0.00 | 0.00 | 80 | 1011.3 |
| 20260505021623 | 13 | 333 | 11.3 | 20.9 | 0.00 | 0.00 | 0.00 | 80 | 1011.4 |
| 20260505021525 | 13 | 329 | 11.3 | 20.9 | 0.00 | 0.00 | 0.00 | 80 | 1011.3 |
| 20260505021422 | 13 | 327 | 11.3 | 19.3 | 0.00 | 0.00 | 0.00 | 80 | 1011.4 |
| 20260505021322 | 13 | 329 | 11.3 | 19.3 | 0.00 | 0.00 | 0.00 | 80 | 1011.4 |
| 20260505021249 | 13 | 334 | 11.3 | 19.3 | 0.00 | 0.00 | 0.00 | 80 | 1011.4 |
| 20260505021210 | 13 | 319 | 11.3 | 19.3 | 0.00 | 0.00 | 0.00 | 80 | 1011.4 |
| 20260505021120 | 13 | 315 | 11.3 | 19.3 | 0.00 | 0.00 | 0.00 | 80 | 1011.4 |
| 20260505021030 | 13 | 327 | 9.7 | 19.3 | 0.00 | 0.00 | 0.00 | 80 | 1011.4 |
| 20260505020952 | 13 | 326 | 9.7 | 19.3 | 0.00 | 0.00 | 0.00 | 80 | 1011.5 |
| 20260505020918 | 13 | 324 | 9.7 | 19.3 | 0.00 | 0.00 | 0.00 | 80 | 1011.5 |
| 20260505020833 | 13 | 326 | 9.7 | 19.3 | 0.00 | 0.00 | 0.00 | 80 | 1011.4 |
| 20260505020522 | 13 | 326 | 9.7 | 17.7 | 0.00 | 0.00 | 0.00 | 80 | 1011.5 |
| 20260505020422 | 13 | 321 | 9.7 | 17.7 | 0.00 | 0.00 | 0.00 | 80 | 1011.6 |
| 20260505020316 | 13 | 321 | 8.0 | 17.7 | 0.00 | 0.00 | 0.00 | 80 | 1011.6 |
| 20260505020218 | 13 | 321 | 8.0 | 17.7 | 0.00 | 0.00 | 0.00 | 80 | 1011.5 |
| 20260505020124 | 13 | 320 | 8.0 | 17.7 | 0.00 | 0.00 | 0.00 | 80 | 1011.5 |
| 20260505020024 | 13 | 328 | 8.0 | 16.1 | 0.00 | 0.00 | 0.00 | 80 | 1011.6 |
| 20260505015917 | 13 | 329 | 8.0 | 16.1 | 0.00 | 0.00 | 0.00 | 80 | 1011.6 |
| 20260505015818 | 13 | 301 | 8.0 | 16.1 | 0.00 | 0.00 | 0.00 | 80 | 1011.6 |
| 20260505015727 | 13 | 326 | 8.0 | 16.1 | 0.00 | 0.00 | 0.00 | 80 | 1011.5 |
| 20260505015649 | 13 | 310 | 8.0 | 16.1 | 0.00 | 0.00 | 0.00 | 80 | 1011.6 |
| 20260505015605 | 13 | 332 | 8.0 | 16.1 | 0.00 | 0.00 | 0.00 | 80 | 1011.5 |
| 20260505015517 | 13 | 324 | 9.7 | 16.1 | 0.00 | 0.00 | 0.00 | 80 | 1011.5 |
| 20260505015441 | 13 | 323 | 9.7 | 16.1 | 0.00 | 0.00 | 0.00 | 80 | 1011.5 |
| 20260505015401 | 13 | 323 | 9.7 | 16.1 | 0.00 | 0.00 | 0.00 | 80 | 1011.5 |
| 20260505015326 | 13 | 323 | 9.7 | 16.1 | 0.00 | 0.00 | 0.00 | 80 | 1011.4 |
| 20260505015028 | 13 | 319 | 9.7 | 16.1 | 0.00 | 0.00 | 0.00 | 80 | 1011.4 |
| 20260505014916 | 13 | 316 | 9.7 | 16.1 | 0.00 | 0.00 | 0.00 | 80 | 1011.5 |
| 20260505014823 | 13 | 327 | 9.7 | 16.1 | 0.00 | 0.00 | 0.00 | 80 | 1011.5 |
| 20260505014717 | 13 | 321 | 9.7 | 16.1 | 0.00 | 0.00 | 0.00 | 80 | 1011.4 |
| 20260505014619 | 13 | 323 | 8.0 | 16.1 | 0.00 | 0.00 | 0.00 | 80 | 1011.4 |
| 20260505014529 | 13 | 319 | 8.0 | 16.1 | 0.00 | 0.00 | 0.00 | 80 | 1011.4 |
| 20260505014436 | 13 | 335 | 6.4 | 14.5 | 0.00 | 0.00 | 0.00 | 80 | 1011.4 |
| 20260505014355 | 13 | 319 | 6.4 | 14.5 | 0.00 | 0.00 | 0.00 | 80 | 1011.5 |
| 20260505014313 | 13 | 326 | 4.8 | 14.5 | 0.00 | 0.00 | 0.00 | 80 | 1011.5 |
| 20260505014232 | 13 | 327 | 4.8 | 12.9 | 0.00 | 0.00 | 0.00 | 80 | 1011.6 |
| 20260505014135 | 13 | 325 | 3.2 | 12.9 | 0.00 | 0.00 | 0.00 | 80 | 1011.5 |
| 20260505014041 | 13 | 326 | 3.2 | 12.9 | 0.00 | 0.00 | 0.00 | 79 | 1011.6 |
| 20260505014005 | 13 | 327 | 3.2 | 12.9 | 0.00 | 0.00 | 0.00 | 79 | 1011.6 |
| 20260505013922 | 13 | 324 | 3.2 | 8.0 | 0.00 | 0.00 | 0.00 | 79 | 1011.6 |
| 20260505013849 | 13 | 305 | 3.2 | 8.0 | 0.00 | 0.00 | 0.00 | 79 | 1011.6 |
| 20260505013557 | 13 | 293 | 3.2 | 8.0 | 0.00 | 0.00 | 0.00 | 79 | 1011.7 |
| 20260505013511 | 13 | 295 | 3.2 | 8.0 | 0.00 | 0.00 | 0.00 | 79 | 1011.8 |
| 20260505013438 | 13 | 324 | 1.6 | 8.0 | 0.00 | 0.00 | 0.00 | 79 | 1011.8 |
| 20260505013400 | 13 | 329 | 1.6 | 8.0 | 0.00 | 0.00 | 0.00 | 79 | 1011.8 |
| 20260505013328 | 13 | 329 | 1.6 | 8.0 | 0.00 | 0.00 | 0.00 | 79 | 1011.7 |
| 20260505013016 | 13 | 329 | 1.6 | 8.0 | 0.00 | 0.00 | 0.00 | 78 | 1011.7 |
| 20260505012917 | 13 | 324 | 1.6 | 8.0 | 0.00 | 0.00 | 0.00 | 78 | 1011.7 |
| 20260505012814 | 13 | 292 | 1.6 | 8.0 | 0.00 | 0.00 | 0.00 | 78 | 1011.7 |
| 20260505012712 | 13 | 315 | 1.6 | 8.0 | 0.00 | 0.00 | 0.00 | 78 | 1011.7 |
| 20260505012619 | 13 | 315 | 1.6 | 8.0 | 0.00 | 0.00 | 0.00 | 78 | 1011.8 |
| 20260505012518 | 13 | 310 | 0.0 | 8.0 | 0.00 | 0.00 | 0.00 | 78 | 1011.8 |
| 20260505012415 | 13 | 327 | 0.0 | 3.2 | 0.00 | 0.00 | 0.00 | 77 | 1011.8 |
| 20260505012314 | 13 | 327 | 0.0 | 3.2 | 0.00 | 0.00 | 0.00 | 77 | 1011.8 |
| 20260505012214 | 13 | 327 | 0.0 | 3.2 | 0.00 | 0.00 | 0.00 | 77 | 1011.8 |
| 20260505012117 | 13 | 327 | 0.0 | 3.2 | 0.00 | 0.00 | 0.00 | 77 | 1011.8 |
| 20260505012017 | 13 | 327 | 0.0 | 1.6 | 0.00 | 0.00 | 0.00 | 77 | 1011.7 |
| 20260505011922 | 13 | 327 | 0.0 | 1.6 | 0.00 | 0.00 | 0.00 | 77 | 1011.8 |
| 20260505011808 | 13 | 327 | 0.0 | 1.6 | 0.00 | 0.00 | 0.00 | 77 | 1011.8 |
| 20260505011711 | 13 | 327 | 0.0 | 4.8 | 0.00 | 0.00 | 0.00 | 77 | 1011.9 |
| 20260505011612 | 13 | 327 | 0.0 | 4.8 | 0.00 | 0.00 | 0.00 | 77 | 1011.9 |
| 20260505011516 | 13 | 327 | 0.0 | 4.8 | 0.00 | 0.00 | 0.00 | 77 | 1011.9 |
| 20260505011406 | 13 | 327 | 0.0 | 6.4 | 0.00 | 0.00 | 0.00 | 77 | 1011.9 |
| 20260505011305 | 13 | 327 | 1.6 | 6.4 | 0.00 | 0.00 | 0.00 | 77 | 1011.8 |
| 20260505011208 | 13 | 327 | 1.6 | 11.3 | 0.00 | 0.00 | 0.00 | 77 | 1011.9 |
| 20260505011121 | 13 | 327 | 1.6 | 11.3 | 0.00 | 0.00 | 0.00 | 77 | 1011.9 |
| 20260505011014 | 13 | 327 | 3.2 | 11.3 | 0.00 | 0.00 | 0.00 | 77 | 1011.9 |
| 20260505010905 | 13 | 327 | 3.2 | 11.3 | 0.00 | 0.00 | 0.00 | 77 | 1011.8 |
| 20260505010806 | 13 | 327 | 4.8 | 14.5 | 0.00 | 0.00 | 0.00 | 77 | 1011.9 |
| 20260505010707 | 13 | 327 | 4.8 | 14.5 | 0.00 | 0.00 | 0.00 | 77 | 1011.8 |
| 20260505010502 | 13 | 326 | 4.8 | 14.5 | 0.00 | 0.00 | 0.00 | 77 | 1011.8 |
| 20260505010403 | 13 | 330 | 6.4 | 14.5 | 0.00 | 0.00 | 0.00 | 77 | 1011.8 |
| 20260505010317 | 13 | 332 | 6.4 | 14.5 | 0.00 | 0.00 | 0.00 | 77 | 1011.8 |
| 20260505010240 | 13 | 325 | 4.8 | 14.5 | 0.00 | 0.00 | 0.00 | 77 | 1011.7 |
| 20260505010206 | 13 | 332 | 4.8 | 14.5 | 0.00 | 0.00 | 0.00 | 77 | 1011.7 |
| 20260505010055 | 13 | 333 | 4.8 | 14.5 | 0.00 | 0.00 | 0.00 | 77 | 1011.7 |
| 20260505010007 | 13 | 334 | 4.8 | 14.5 | 0.00 | 0.00 | 0.00 | 77 | 1011.7 |
| 20260505005926 | 13 | 319 | 3.2 | 12.9 | 0.00 | 0.00 | 0.00 | 77 | 1011.7 |
| 20260505005852 | 13 | 326 | 3.2 | 12.9 | 0.00 | 0.00 | 0.00 | 77 | 1011.8 |
| 20260505005817 | 13 | 322 | 3.2 | 11.3 | 0.00 | 0.00 | 0.00 | 77 | 1011.8 |
| 20260505005459 | 13 | 329 | 3.2 | 11.3 | 0.00 | 0.00 | 0.00 | 77 | 1011.8 |
| 20260505005355 | 13 | 327 | 3.2 | 11.3 | 0.00 | 0.00 | 0.00 | 77 | 1011.8 |
| 20260505005257 | 13 | 288 | 3.2 | 9.7 | 0.00 | 0.00 | 0.00 | 77 | 1011.8 |
| 20260505005206 | 13 | 329 | 4.8 | 9.7 | 0.00 | 0.00 | 0.00 | 77 | 1011.8 |
| 20260505005123 | 13 | 329 | 4.8 | 14.5 | 0.00 | 0.00 | 0.00 | 77 | 1011.8 |
| 20260505005032 | 13 | 293 | 4.8 | 14.5 | 0.00 | 0.00 | 0.00 | 76 | 1011.9 |
| 20260505004954 | 13 | 319 | 6.4 | 14.5 | 0.00 | 0.00 | 0.00 | 76 | 1011.9 |
| 20260505004920 | 13 | 319 | 6.4 | 14.5 | 0.00 | 0.00 | 0.00 | 76 | 1011.9 |
| 20260505004839 | 14 | 307 | 6.4 | 14.5 | 0.00 | 0.00 | 0.00 | 76 | 1011.8 |
| 20260505004544 | 14 | 324 | 8.0 | 16.1 | 0.00 | 0.00 | 0.00 | 76 | 1011.9 |
| 20260505004446 | 14 | 324 | 8.0 | 16.1 | 0.00 | 0.00 | 0.00 | 76 | 1011.9 |
| 20260505004341 | 14 | 326 | 8.0 | 16.1 | 0.00 | 0.00 | 0.00 | 76 | 1011.8 |
| 20260505004251 | 14 | 331 | 8.0 | 16.1 | 0.00 | 0.00 | 0.00 | 76 | 1011.8 |
| 20260505004214 | 14 | 329 | 8.0 | 16.1 | 0.00 | 0.00 | 0.00 | 76 | 1011.8 |
| 20260505004126 | 14 | 327 | 8.0 | 17.7 | 0.00 | 0.00 | 0.00 | 76 | 1011.8 |
| 20260505004030 | 14 | 328 | 9.7 | 17.7 | 0.00 | 0.00 | 0.00 | 76 | 1011.8 |
| 20260505003947 | 14 | 329 | 9.7 | 17.7 | 0.00 | 0.00 | 0.00 | 76 | 1011.8 |
| 20260505003912 | 14 | 326 | 9.7 | 17.7 | 0.00 | 0.00 | 0.00 | 76 | 1011.9 |
| 20260505003831 | 14 | 321 | 9.7 | 17.7 | 0.00 | 0.00 | 0.00 | 76 | 1011.8 |
| 20260505003535 | 14 | 342 | 9.7 | 17.7 | 0.00 | 0.00 | 0.00 | 76 | 1011.8 |
| 20260505003434 | 14 | 324 | 9.7 | 17.7 | 0.00 | 0.00 | 0.00 | 76 | 1011.8 |
| 20260505003341 | 14 | 318 | 9.7 | 19.3 | 0.00 | 0.00 | 0.00 | 75 | 1011.9 |
| 20260505003251 | 14 | 327 | 11.3 | 19.3 | 0.00 | 0.00 | 0.00 | 75 | 1011.9 |
| 20260505003208 | 14 | 338 | 11.3 | 19.3 | 0.00 | 0.00 | 0.00 | 75 | 1011.9 |
| 20260505003113 | 14 | 333 | 9.7 | 19.3 | 0.00 | 0.00 | 0.00 | 75 | 1011.8 |
| 20260505003027 | 14 | 324 | 9.7 | 19.3 | 0.00 | 0.00 | 0.00 | 75 | 1011.9 |
| 20260505002945 | 14 | 329 | 9.7 | 19.3 | 0.00 | 0.00 | 0.00 | 75 | 1011.8 |
| 20260505002907 | 14 | 326 | 9.7 | 19.3 | 0.00 | 0.00 | 0.00 | 75 | 1011.9 |
| 20260505002824 | 14 | 333 | 9.7 | 19.3 | 0.00 | 0.00 | 0.00 | 75 | 1011.9 |
| 20260505002526 | 14 | 328 | 9.7 | 19.3 | 0.00 | 0.00 | 0.00 | 75 | 1011.9 |
| 20260505002425 | 14 | 329 | 9.7 | 19.3 | 0.00 | 0.00 | 0.00 | 75 | 1011.9 |
| 20260505002323 | 14 | 324 | 9.7 | 17.7 | 0.00 | 0.00 | 0.00 | 75 | 1011.9 |
| 20260505002224 | 14 | 331 | 9.7 | 17.7 | 0.00 | 0.00 | 0.00 | 75 | 1011.9 |
| 20260505002120 | 14 | 333 | 8.0 | 17.7 | 0.00 | 0.00 | 0.00 | 75 | 1011.9 |
| 20260505002020 | 14 | 321 | 8.0 | 17.7 | 0.00 | 0.00 | 0.00 | 75 | 1011.9 |
| 20260505001921 | 14 | 333 | 8.0 | 17.7 | 0.00 | 0.00 | 0.00 | 75 | 1011.9 |
| 20260505001821 | 14 | 319 | 8.0 | 17.7 | 0.00 | 0.00 | 0.00 | 75 | 1012.0 |
| 20260505001719 | 14 | 334 | 8.0 | 17.7 | 0.00 | 0.00 | 0.00 | 75 | 1012.0 |
| 20260505001619 | 14 | 330 | 8.0 | 17.7 | 0.00 | 0.00 | 0.00 | 75 | 1012.0 |
| 20260505001518 | 14 | 324 | 8.0 | 17.7 | 0.00 | 0.00 | 0.00 | 75 | 1012.0 |
| 20260505001416 | 14 | 326 | 8.0 | 16.1 | 0.00 | 0.00 | 0.00 | 75 | 1012.0 |
| 20260505001318 | 14 | 337 | 8.0 | 16.1 | 0.00 | 0.00 | 0.00 | 75 | 1012.0 |
| 20260505001218 | 14 | 318 | 8.0 | 16.1 | 0.00 | 0.00 | 0.00 | 75 | 1012.1 |
| 20260505001117 | 14 | 327 | 8.0 | 16.1 | 0.00 | 0.00 | 0.00 | 75 | 1012.1 |
| 20260505001017 | 14 | 331 | 8.0 | 16.1 | 0.00 | 0.00 | 0.00 | 75 | 1012.1 |
| 20260505000916 | 14 | 333 | 6.4 | 14.5 | 0.00 | 0.00 | 0.00 | 75 | 1012.1 |
| 20260505000813 | 14 | 338 | 6.4 | 14.5 | 0.00 | 0.00 | 0.00 | 75 | 1012.1 |
| 20260505000716 | 14 | 331 | 6.4 | 14.5 | 0.00 | 0.00 | 0.00 | 75 | 1012.1 |
| 20260505000614 | 14 | 321 | 4.8 | 14.5 | 0.00 | 0.00 | 0.00 | 75 | 1012.1 |
| 20260505000517 | 14 | 329 | 4.8 | 14.5 | 0.00 | 0.00 | 0.00 | 75 | 1012.1 |
| 20260505000413 | 14 | 332 | 3.2 | 14.5 | 0.00 | 0.00 | 0.00 | 75 | 1012.2 |
| 20260505000310 | 14 | 331 | 3.2 | 14.5 | 0.00 | 0.00 | 0.00 | 75 | 1012.2 |
| 20260505000211 | 14 | 333 | 3.2 | 12.9 | 0.00 | 0.00 | 0.00 | 75 | 1012.2 |
| 20260505000120 | 14 | 332 | 3.2 | 12.9 | 0.00 | 0.00 | 0.00 | 75 | 1012.2 |
| 20260505000011 | 14 | 329 | 3.2 | 12.9 | 0.00 | 0.00 | 0.00 | 75 | 1012.2 |
| 20260504235903 | 14 | 330 | 3.2 | 12.9 | 0.00 | 0.00 | 0.00 | 75 | 1012.2 |
| 20260504235807 | 14 | 330 | 3.2 | 12.9 | 0.00 | 0.00 | 0.00 | 75 | 1012.2 |
| 20260504235703 | 14 | 333 | 3.2 | 12.9 | 0.00 | 0.00 | 0.00 | 75 | 1012.2 |
| 20260504235600 | 14 | 331 | 3.2 | 11.3 | 0.00 | 0.00 | 0.00 | 75 | 1012.2 |
| 20260504235500 | 14 | 332 | 3.2 | 11.3 | 0.00 | 0.00 | 0.00 | 75 | 1012.3 |
| 20260504235404 | 14 | 326 | 3.2 | 11.3 | 0.00 | 0.00 | 0.00 | 75 | 1012.3 |
| 20260504235300 | 14 | 330 | 3.2 | 11.3 | 0.00 | 0.00 | 0.00 | 74 | 1012.3 |
| 20260504235157 | 14 | 321 | 3.2 | 11.3 | 0.00 | 0.00 | 0.00 | 75 | 1012.3 |
| 20260504235105 | 14 | 317 | 3.2 | 11.3 | 0.00 | 0.00 | 0.00 | 75 | 1012.3 |
| 20260504234959 | 14 | 350 | 3.2 | 11.3 | 0.00 | 0.00 | 0.00 | 74 | 1012.3 |
| 20260504234857 | 14 | 331 | 1.6 | 11.3 | 0.00 | 0.00 | 0.00 | 74 | 1012.3 |
| 20260504234755 | 14 | 320 | 1.6 | 11.3 | 0.00 | 0.00 | 0.00 | 74 | 1012.3 |
| 20260504234654 | 14 | 318 | 1.6 | 8.0 | 0.00 | 0.00 | 0.00 | 74 | 1012.2 |
| 20260504234556 | 14 | 321 | 1.6 | 8.0 | 0.00 | 0.00 | 0.00 | 74 | 1012.2 |
| 20260504234453 | 14 | 335 | 1.6 | 8.0 | 0.00 | 0.00 | 0.00 | 74 | 1012.3 |
| 20260504234349 | 14 | 310 | 1.6 | 4.8 | 0.00 | 0.00 | 0.00 | 74 | 1012.3 |
| 20260504234249 | 14 | 300 | 1.6 | 4.8 | 0.00 | 0.00 | 0.00 | 74 | 1012.3 |
| 20260504234215 | 14 | 248 | 1.6 | 6.4 | 0.00 | 0.00 | 0.00 | 73 | 1012.3 |
| 20260504234133 | 14 | 248 | 1.6 | 6.4 | 0.00 | 0.00 | 0.00 | 73 | 1012.3 |
| 20260504234048 | 15 | 248 | 1.6 | 6.4 | 0.00 | 0.00 | 0.00 | 73 | 1012.3 |
| 20260504234018 | 14 | 248 | 1.6 | 6.4 | 0.00 | 0.00 | 0.00 | 73 | 1012.3 |
| 20260504233939 | 14 | 274 | 1.6 | 6.4 | 0.00 | 0.00 | 0.00 | 73 | 1012.3 |
| 20260504233644 | 14 | 274 | 1.6 | 6.4 | 0.00 | 0.00 | 0.00 | 73 | 1012.3 |
| 20260504233606 | 14 | 218 | 1.6 | 6.4 | 0.00 | 0.00 | 0.00 | 74 | 1012.3 |
| 20260504233517 | 14 | 274 | 1.6 | 6.4 | 0.00 | 0.00 | 0.00 | 74 | 1012.3 |
| 20260504233444 | 14 | 274 | 1.6 | 6.4 | 0.00 | 0.00 | 0.00 | 74 | 1012.3 |
| 20260504233355 | 14 | 274 | 0.0 | 6.4 | 0.00 | 0.00 | 0.00 | 74 | 1012.3 |
| 20260504233320 | 14 | 255 | 0.0 | 3.2 | 0.00 | 0.00 | 0.00 | 74 | 1012.3 |
| 20260504233035 | 14 | 319 | 0.0 | 3.2 | 0.00 | 0.00 | 0.00 | 74 | 1012.3 |
| 20260504232934 | 14 | 318 | 0.0 | 3.2 | 0.00 | 0.00 | 0.00 | 74 | 1012.3 |
| 20260504232831 | 14 | 314 | 0.0 | 3.2 | 0.00 | 0.00 | 0.00 | 74 | 1012.4 |
| 20260504232732 | 14 | 312 | 0.0 | 3.2 | 0.00 | 0.00 | 0.00 | 73 | 1012.3 |
| 20260504232632 | 14 | 312 | 0.0 | 3.2 | 0.00 | 0.00 | 0.00 | 73 | 1012.3 |
| 20260504232531 | 14 | 310 | 0.0 | 3.2 | 0.00 | 0.00 | 0.00 | 73 | 1012.3 |
| 20260504232427 | 14 | 310 | 0.0 | 3.2 | 0.00 | 0.00 | 0.00 | 73 | 1012.3 |
| 20260504232325 | 14 | 310 | 0.0 | 3.2 | 0.00 | 0.00 | 0.00 | 73 | 1012.4 |
| 20260504232226 | 15 | 310 | 0.0 | 3.2 | 0.00 | 0.00 | 0.00 | 73 | 1012.3 |
| 20260504232130 | 15 | 309 | 0.0 | 1.6 | 0.00 | 0.00 | 0.00 | 73 | 1012.3 |
| 20260504232051 | 15 | 309 | 0.0 | 1.6 | 0.00 | 0.00 | 0.00 | 73 | 1012.4 |
| 20260504232006 | 15 | 309 | 0.0 | 1.6 | 0.00 | 0.00 | 0.00 | 73 | 1012.4 |
| 20260504231937 | 15 | 309 | 0.0 | 1.6 | 0.00 | 0.00 | 0.00 | 73 | 1012.3 |
| 20260504231859 | 15 | 309 | 0.0 | 1.6 | 0.00 | 0.00 | 0.00 | 73 | 1012.4 |
| 20260504231819 | 15 | 309 | 0.0 | 1.6 | 0.00 | 0.00 | 0.00 | 72 | 1012.4 |
| 20260504231536 | 15 | 309 | 0.0 | 1.6 | 0.00 | 0.00 | 0.00 | 72 | 1012.4 |
| 20260504231455 | 15 | 309 | 0.0 | 1.6 | 0.00 | 0.00 | 0.00 | 72 | 1012.3 |
| 20260504231425 | 15 | 309 | 0.0 | 3.2 | 0.00 | 0.00 | 0.00 | 72 | 1012.4 |
| 20260504231349 | 15 | 309 | 0.0 | 3.2 | 0.00 | 0.00 | 0.00 | 72 | 1012.4 |
| 20260504231312 | 15 | 309 | 0.0 | 3.2 | 0.00 | 0.00 | 0.00 | 72 | 1012.4 |
| 20260504231016 | 15 | 309 | 1.6 | 3.2 | 0.00 | 0.00 | 0.00 | 72 | 1012.4 |
| 20260504230908 | 15 | 309 | 1.6 | 4.8 | 0.00 | 0.00 | 0.00 | 72 | 1012.4 |
| 20260504230812 | 15 | 309 | 1.6 | 4.8 | 0.00 | 0.00 | 0.00 | 73 | 1012.5 |
| 20260504230712 | 15 | 309 | 1.6 | 4.8 | 0.00 | 0.00 | 0.00 | 73 | 1012.5 |
| 20260504230608 | 15 | 309 | 1.6 | 4.8 | 0.00 | 0.00 | 0.00 | 73 | 1012.5 |
| 20260504230516 | 15 | 309 | 1.6 | 4.8 | 0.00 | 0.00 | 0.00 | 73 | 1012.4 |
| 20260504230404 | 15 | 309 | 1.6 | 4.8 | 0.00 | 0.00 | 0.00 | 73 | 1012.5 |
| 20260504230303 | 14 | 323 | 1.6 | 4.8 | 0.00 | 0.00 | 0.00 | 73 | 1012.5 |
| 20260504230202 | 14 | 323 | 1.6 | 4.8 | 0.00 | 0.00 | 0.00 | 73 | 1012.6 |
| 20260504230106 | 14 | 323 | 1.6 | 6.4 | 0.00 | 0.00 | 0.00 | 73 | 1012.6 |
| 20260504225959 | 14 | 323 | 1.6 | 6.4 | 0.00 | 0.00 | 0.00 | 73 | 1012.5 |
| 20260504225859 | 14 | 322 | 1.6 | 6.4 | 0.00 | 0.00 | 0.00 | 73 | 1012.6 |
| 20260504225802 | 14 | 302 | 1.6 | 6.4 | 0.00 | 0.00 | 0.00 | 73 | 1012.5 |
| 20260504225700 | 14 | 302 | 1.6 | 6.4 | 0.00 | 0.00 | 0.00 | 73 | 1012.5 |
| 20260504225552 | 14 | 302 | 0.0 | 6.4 | 0.00 | 0.00 | 0.00 | 73 | 1012.5 |
| 20260504225453 | 14 | 305 | 0.0 | 6.4 | 0.00 | 0.00 | 0.00 | 73 | 1012.5 |
| 20260504225352 | 14 | 305 | 0.0 | 6.4 | 0.00 | 0.00 | 0.00 | 73 | 1012.5 |
| 20260504225253 | 14 | 305 | 0.0 | 6.4 | 0.00 | 0.00 | 0.00 | 73 | 1012.5 |
| 20260504225144 | 14 | 305 | 0.0 | 6.4 | 0.00 | 0.00 | 0.00 | 73 | 1012.5 |
| 20260504224938 | 14 | 347 | 0.0 | 4.8 | 0.00 | 0.00 | 0.00 | 73 | 1012.6 |
| 20260504224836 | 14 | 347 | 0.0 | 4.8 | 0.00 | 0.00 | 0.00 | 72 | 1012.6 |
| 20260504224736 | 15 | 2 | 0.0 | 3.2 | 0.00 | 0.00 | 0.00 | 72 | 1012.6 |
| 20260504224636 | 15 | 2 | 0.0 | 3.2 | 0.00 | 0.00 | 0.00 | 72 | 1012.6 |
| 20260504224434 | 15 | 2 | 0.0 | 3.2 | 0.00 | 0.00 | 0.00 | 72 | 1012.6 |
| 20260504224333 | 15 | 2 | 0.0 | 4.8 | 0.00 | 0.00 | 0.00 | 71 | 1012.7 |
| 20260504224233 | 15 | 2 | 0.0 | 4.8 | 0.00 | 0.00 | 0.00 | 71 | 1012.7 |
| 20260504224135 | 15 | 2 | 1.6 | 4.8 | 0.00 | 0.00 | 0.00 | 71 | 1012.6 |
| 20260504223932 | 15 | 325 | 1.6 | 4.8 | 0.00 | 0.00 | 0.00 | 71 | 1012.7 |
| 20260504223833 | 15 | 325 | 1.6 | 6.4 | 0.00 | 0.00 | 0.00 | 71 | 1012.7 |
| 20260504223731 | 15 | 325 | 1.6 | 9.7 | 0.00 | 0.00 | 0.00 | 71 | 1012.7 |
| 20260504223625 | 15 | 325 | 3.2 | 9.7 | 0.00 | 0.00 | 0.00 | 71 | 1012.7 |
| 20260504223425 | 15 | 322 | 3.2 | 9.7 | 0.00 | 0.00 | 0.00 | 70 | 1012.6 |
| 20260504223324 | 15 | 321 | 3.2 | 9.7 | 0.00 | 0.00 | 0.00 | 70 | 1012.7 |
| 20260504223225 | 15 | 321 | 3.2 | 9.7 | 0.00 | 0.00 | 0.00 | 70 | 1012.7 |
| 20260504223144 | 15 | 285 | 3.2 | 9.7 | 0.00 | 0.00 | 0.00 | 70 | 1012.6 |
| 20260504223021 | 15 | 285 | 3.2 | 9.7 | 0.00 | 0.00 | 0.00 | 70 | 1012.6 |
| 20260504222945 | 15 | 324 | 3.2 | 9.7 | 0.00 | 0.00 | 0.00 | 70 | 1012.6 |
| 20260504222911 | 15 | 288 | 3.2 | 8.0 | 0.00 | 0.00 | 0.00 | 70 | 1012.7 |
| 20260504222840 | 15 | 329 | 1.6 | 8.0 | 0.00 | 0.00 | 0.00 | 70 | 1012.7 |
| 20260504222807 | 15 | 338 | 1.6 | 8.0 | 0.00 | 0.00 | 0.00 | 69 | 1012.7 |
| 20260504222505 | 15 | 345 | 1.6 | 8.0 | 0.00 | 0.00 | 0.00 | 69 | 1012.7 |
| 20260504222429 | 15 | 345 | 1.6 | 8.0 | 0.00 | 0.00 | 0.00 | 69 | 1012.7 |
| 20260504222341 | 15 | 345 | 1.6 | 8.0 | 0.00 | 0.00 | 0.00 | 69 | 1012.7 |
| 20260504222308 | 15 | 293 | 1.6 | 8.0 | 0.00 | 0.00 | 0.00 | 69 | 1012.6 |
| 20260504222233 | 15 | 301 | 0.0 | 8.0 | 0.00 | 0.00 | 0.00 | 69 | 1012.7 |
| 20260504221907 | 15 | 310 | 0.0 | 8.0 | 0.00 | 0.00 | 0.00 | 69 | 1012.7 |
| 20260504221805 | 15 | 319 | 0.0 | 4.8 | 0.00 | 0.00 | 0.00 | 69 | 1012.6 |
| 20260504221706 | 15 | 319 | 0.0 | 4.8 | 0.00 | 0.00 | 0.00 | 69 | 1012.6 |
| 20260504221605 | 15 | 319 | 0.0 | 4.8 | 0.00 | 0.00 | 0.00 | 69 | 1012.7 |
| 20260504221515 | 15 | 319 | 0.0 | 4.8 | 0.00 | 0.00 | 0.00 | 69 | 1012.7 |
| 20260504221404 | 15 | 319 | 0.0 | 4.8 | 0.00 | 0.00 | 0.00 | 69 | 1012.7 |
| 20260504221303 | 15 | 319 | 0.0 | 4.8 | 0.00 | 0.00 | 0.00 | 69 | 1012.7 |
| 20260504221201 | 15 | 319 | 0.0 | 6.4 | 0.00 | 0.00 | 0.00 | 68 | 1012.7 |
| 20260504221059 | 15 | 319 | 0.0 | 6.4 | 0.00 | 0.00 | 0.00 | 68 | 1012.7 |
| 20260504220855 | 15 | 319 | 1.6 | 8.0 | 0.00 | 0.00 | 0.00 | 68 | 1012.7 |
| 20260504220755 | 15 | 319 | 1.6 | 9.7 | 0.00 | 0.00 | 0.00 | 68 | 1012.7 |
| 20260504220655 | 15 | 319 | 1.6 | 9.7 | 0.00 | 0.00 | 0.00 | 68 | 1012.7 |
| 20260504220551 | 15 | 319 | 1.6 | 9.7 | 0.00 | 0.00 | 0.00 | 68 | 1012.7 |
| 20260504220341 | 15 | 319 | 3.2 | 9.7 | 0.00 | 0.00 | 0.00 | 67 | 1012.7 |
| 20260504220240 | 15 | 296 | 1.6 | 9.7 | 0.00 | 0.00 | 0.00 | 67 | 1012.7 |
| 20260504220139 | 15 | 332 | 1.6 | 9.7 | 0.00 | 0.00 | 0.00 | 67 | 1012.8 |
| 20260504220039 | 15 | 330 | 3.2 | 11.3 | 0.00 | 0.00 | 0.00 | 66 | 1012.7 |
| 20260504215934 | 15 | 329 | 3.2 | 11.3 | 0.00 | 0.00 | 0.00 | 66 | 1012.8 |
| 20260504215832 | 15 | 329 | 3.2 | 11.3 | 0.00 | 0.00 | 0.00 | 66 | 1012.7 |
| 20260504215734 | 15 | 330 | 3.2 | 11.3 | 0.00 | 0.00 | 0.00 | 66 | 1012.8 |
| 20260504215634 | 15 | 319 | 1.6 | 11.3 | 0.00 | 0.00 | 0.00 | 66 | 1012.7 |
| 20260504215535 | 15 | 288 | 1.6 | 11.3 | 0.00 | 0.00 | 0.00 | 65 | 1012.7 |
| 20260504215433 | 16 | 296 | 1.6 | 11.3 | 0.00 | 0.00 | 0.00 | 64 | 1012.7 |
| 20260504215329 | 16 | 317 | 3.2 | 11.3 | 0.00 | 0.00 | 0.00 | 64 | 1012.8 |
| 20260504215233 | 16 | 317 | 3.2 | 11.3 | 0.00 | 0.00 | 0.00 | 64 | 1012.7 |
| 20260504215129 | 16 | 332 | 3.2 | 11.3 | 0.00 | 0.00 | 0.00 | 64 | 1012.8 |
| 20260504215031 | 16 | 318 | 1.6 | 8.0 | 0.00 | 0.00 | 0.00 | 63 | 1012.8 |
| 20260504214927 | 16 | 304 | 1.6 | 8.0 | 0.00 | 0.00 | 0.00 | 63 | 1012.7 |
| 20260504214830 | 16 | 337 | 1.6 | 6.4 | 0.00 | 0.00 | 0.00 | 63 | 1012.7 |
| 20260504214730 | 16 | 318 | 1.6 | 6.4 | 0.00 | 0.00 | 0.00 | 62 | 1012.7 |
| 20260504214626 | 16 | 332 | 1.6 | 6.4 | 0.00 | 0.00 | 0.00 | 62 | 1012.7 |
| 20260504214534 | 16 | 332 | 1.6 | 6.4 | 0.00 | 0.00 | 0.00 | 62 | 1012.8 |
| 20260504214426 | 16 | 332 | 1.6 | 6.4 | 0.00 | 0.00 | 0.00 | 62 | 1012.7 |
| 20260504214326 | 16 | 332 | 0.0 | 6.4 | 0.00 | 0.00 | 0.00 | 62 | 1012.8 |
| 20260504214231 | 16 | 336 | 0.0 | 4.8 | 0.00 | 0.00 | 0.00 | 62 | 1012.8 |
| 20260504214121 | 16 | 17 | 0.0 | 4.8 | 0.00 | 0.00 | 0.00 | 61 | 1012.8 |
| 20260504214023 | 16 | 17 | 0.0 | 4.8 | 0.00 | 0.00 | 0.00 | 61 | 1012.8 |
| 20260504213918 | 16 | 17 | 0.0 | 4.8 | 0.00 | 0.00 | 0.00 | 61 | 1012.8 |
| 20260504213822 | 16 | 17 | 0.0 | 4.8 | 0.00 | 0.00 | 0.00 | 61 | 1012.8 |
| 20260504213717 | 16 | 17 | 0.0 | 4.8 | 0.00 | 0.00 | 0.00 | 61 | 1012.8 |
| 20260504213612 | 16 | 17 | 0.0 | 4.8 | 0.00 | 0.00 | 0.00 | 61 | 1012.8 |
| 20260504213521 | 16 | 17 | 0.0 | 4.8 | 0.00 | 0.00 | 0.00 | 61 | 1012.8 |
| 20260504213412 | 16 | 17 | 0.0 | 4.8 | 0.00 | 0.00 | 0.00 | 61 | 1012.8 |
| 20260504213315 | 16 | 17 | 0.0 | 4.8 | 0.00 | 0.00 | 0.00 | 61 | 1012.8 |
| 20260504213212 | 16 | 17 | 0.0 | 4.8 | 0.00 | 0.00 | 0.00 | 61 | 1012.8 |
| 20260504213114 | 16 | 325 | 0.0 | 3.2 | 0.00 | 0.00 | 0.00 | 61 | 1012.8 |
| 20260504213023 | 16 | 324 | 0.0 | 3.2 | 0.00 | 0.00 | 0.00 | 61 | 1012.8 |
| 20260504212912 | 16 | 324 | 0.0 | 3.2 | 0.00 | 0.00 | 0.00 | 61 | 1012.8 |
| 20260504212813 | 16 | 324 | 0.0 | 4.8 | 0.00 | 0.00 | 0.00 | 61 | 1012.8 |
| 20260504212712 | 16 | 324 | 0.0 | 4.8 | 0.00 | 0.00 | 0.00 | 61 | 1012.8 |
| 20260504212610 | 16 | 324 | 1.6 | 4.8 | 0.00 | 0.00 | 0.00 | 61 | 1012.8 |
| 20260504212523 | 16 | 324 | 1.6 | 8.0 | 0.00 | 0.00 | 0.00 | 61 | 1012.8 |
| 20260504212415 | 16 | 324 | 1.6 | 8.0 | 0.00 | 0.00 | 0.00 | 60 | 1012.9 |
| 20260504212310 | 16 | 324 | 1.6 | 8.0 | 0.00 | 0.00 | 0.00 | 60 | 1012.9 |
| 20260504212211 | 16 | 324 | 1.6 | 8.0 | 0.00 | 0.00 | 0.00 | 60 | 1012.8 |
| 20260504212112 | 16 | 324 | 1.6 | 8.0 | 0.00 | 0.00 | 0.00 | 60 | 1012.8 |
| 20260504212022 | 16 | 324 | 1.6 | 8.0 | 0.00 | 0.00 | 0.00 | 60 | 1012.8 |
| 20260504211910 | 16 | 324 | 1.6 | 8.0 | 0.00 | 0.00 | 0.00 | 60 | 1012.8 |
| 20260504211814 | 16 | 321 | 1.6 | 8.0 | 0.00 | 0.00 | 0.00 | 60 | 1012.8 |
| 20260504211708 | 16 | 302 | 1.6 | 8.0 | 0.00 | 0.00 | 0.00 | 60 | 1012.8 |
| 20260504211604 | 16 | 322 | 1.6 | 8.0 | 0.00 | 0.00 | 0.00 | 60 | 1012.8 |
| 20260504211524 | 16 | 322 | 0.0 | 4.8 | 0.00 | 0.00 | 0.00 | 60 | 1012.8 |
| 20260504211409 | 16 | 331 | 0.0 | 4.8 | 0.00 | 0.00 | 0.00 | 60 | 1012.8 |
| 20260504211308 | 16 | 331 | 0.0 | 4.8 | 0.00 | 0.00 | 0.00 | 60 | 1012.8 |
| 20260504211205 | 16 | 331 | 0.0 | 4.8 | 0.00 | 0.00 | 0.00 | 60 | 1012.9 |
| 20260504211105 | 16 | 333 | 0.0 | 4.8 | 0.00 | 0.00 | 0.00 | 60 | 1012.8 |
| 20260504211012 | 16 | 333 | 0.0 | 4.8 | 0.00 | 0.00 | 0.00 | 61 | 1012.8 |
| 20260504210904 | 16 | 333 | 0.0 | 1.6 | 0.00 | 0.00 | 0.00 | 61 | 1012.9 |
| 20260504210805 | 16 | 333 | 0.0 | 1.6 | 0.00 | 0.00 | 0.00 | 61 | 1012.8 |
| 20260504210705 | 16 | 333 | 0.0 | 1.6 | 0.00 | 0.00 | 0.00 | 61 | 1012.8 |
| 20260504210606 | 16 | 333 | 0.0 | 3.2 | 0.00 | 0.00 | 0.00 | 60 | 1012.9 |
| 20260504210516 | 16 | 333 | 0.0 | 3.2 | 0.00 | 0.00 | 0.00 | 60 | 1012.9 |
| 20260504210404 | 16 | 333 | 0.0 | 3.2 | 0.00 | 0.00 | 0.00 | 60 | 1012.8 |
| 20260504210305 | 16 | 333 | 0.0 | 3.2 | 0.00 | 0.00 | 0.00 | 60 | 1012.9 |
| 20260504210205 | 16 | 333 | 0.0 | 3.2 | 0.00 | 0.00 | 0.00 | 60 | 1012.9 |
| 20260504210106 | 16 | 333 | 0.0 | 3.2 | 0.00 | 0.00 | 0.00 | 60 | 1012.9 |
| 20260504210009 | 16 | 333 | 0.0 | 4.8 | 0.00 | 0.00 | 0.00 | 60 | 1012.9 |
| 20260504205908 | 16 | 333 | 0.0 | 4.8 | 0.00 | 0.00 | 0.00 | 60 | 1012.9 |
| 20260504205803 | 16 | 333 | 0.0 | 4.8 | 0.00 | 0.00 | 0.00 | 60 | 1012.8 |
| 20260504205703 | 16 | 333 | 0.0 | 4.8 | 0.00 | 0.00 | 0.00 | 60 | 1012.9 |
| 20260504205602 | 16 | 332 | 0.0 | 4.8 | 0.00 | 0.00 | 0.00 | 60 | 1012.9 |
| 20260504205510 | 16 | 332 | 0.0 | 4.8 | 0.00 | 0.00 | 0.00 | 60 | 1012.9 |
| 20260504205422 | 16 | 332 | 0.0 | 4.8 | 0.00 | 0.00 | 0.00 | 60 | 1012.9 |
| 20260504205354 | 16 | 332 | 0.0 | 4.8 | 0.00 | 0.00 | 0.00 | 60 | 1012.9 |
| 20260504205323 | 16 | 332 | 0.0 | 4.8 | 0.00 | 0.00 | 0.00 | 60 | 1012.9 |
| 20260504205251 | 16 | 332 | 0.0 | 4.8 | 0.00 | 0.00 | 0.00 | 60 | 1012.9 |
| 20260504205209 | 16 | 332 | 0.0 | 3.2 | 0.00 | 0.00 | 0.00 | 60 | 1012.9 |
| 20260504204904 | 16 | 332 | 0.0 | 3.2 | 0.00 | 0.00 | 0.00 | 60 | 1012.9 |
| 20260504204801 | 16 | 331 | 0.0 | 3.2 | 0.00 | 0.00 | 0.00 | 60 | 1012.9 |
| 20260504204708 | 16 | 331 | 0.0 | 3.2 | 0.00 | 0.00 | 0.00 | 60 | 1012.9 |
| 20260504204602 | 16 | 331 | 0.0 | 4.8 | 0.00 | 0.00 | 0.00 | 60 | 1012.9 |
| 20260504204516 | 16 | 331 | 0.0 | 4.8 | 0.00 | 0.00 | 0.00 | 60 | 1012.9 |
| 20260504204437 | 16 | 331 | 0.0 | 4.8 | 0.00 | 0.00 | 0.00 | 60 | 1012.8 |
| 20260504204403 | 16 | 331 | 0.0 | 4.8 | 0.00 | 0.00 | 0.00 | 59 | 1012.8 |
| 20260504204335 | 16 | 331 | 0.0 | 4.8 | 0.00 | 0.00 | 0.00 | 59 | 1012.9 |
| 20260504204256 | 16 | 331 | 1.6 | 4.8 | 0.00 | 0.00 | 0.00 | 59 | 1012.8 |
| 20260504204205 | 16 | 331 | 1.6 | 6.4 | 0.00 | 0.00 | 0.00 | 59 | 1012.8 |
| 20260504203856 | 16 | 331 | 1.6 | 8.0 | 0.00 | 0.00 | 0.00 | 59 | 1012.9 |
| 20260504203800 | 16 | 331 | 3.2 | 8.0 | 0.00 | 0.00 | 0.00 | 58 | 1012.8 |
| 20260504203702 | 16 | 329 | 3.2 | 8.0 | 0.00 | 0.00 | 0.00 | 58 | 1012.8 |
| 20260504203555 | 16 | 322 | 3.2 | 8.0 | 0.00 | 0.00 | 0.00 | 58 | 1012.8 |
| 20260504203500 | 17 | 322 | 3.2 | 8.0 | 0.00 | 0.00 | 0.00 | 58 | 1012.8 |
| 20260504203359 | 17 | 322 | 3.2 | 8.0 | 0.00 | 0.00 | 0.00 | 57 | 1012.8 |
| 20260504203303 | 17 | 322 | 3.2 | 8.0 | 0.00 | 0.00 | 0.00 | 57 | 1012.9 |
| 20260504203201 | 17 | 321 | 3.2 | 8.0 | 0.00 | 0.00 | 0.00 | 57 | 1012.8 |
| 20260504203103 | 17 | 331 | 3.2 | 8.0 | 0.00 | 0.00 | 0.00 | 57 | 1012.9 |
| 20260504203000 | 17 | 327 | 3.2 | 8.0 | 0.00 | 0.00 | 0.00 | 57 | 1012.8 |
| 20260504202857 | 17 | 329 | 3.2 | 8.0 | 0.00 | 0.00 | 0.00 | 57 | 1012.9 |
| 20260504202759 | 17 | 325 | 3.2 | 8.0 | 0.00 | 0.00 | 0.00 | 57 | 1012.8 |
| 20260504202658 | 17 | 318 | 3.2 | 8.0 | 0.00 | 0.00 | 0.00 | 57 | 1012.8 |
| 20260504202558 | 17 | 313 | 3.2 | 8.0 | 0.00 | 0.00 | 0.00 | 57 | 1012.8 |
| 20260504202501 | 17 | 323 | 3.2 | 6.4 | 0.00 | 0.00 | 0.00 | 57 | 1012.9 |
| 20260504202359 | 17 | 305 | 3.2 | 6.4 | 0.00 | 0.00 | 0.00 | 57 | 1012.9 |
| 20260504202256 | 17 | 297 | 3.2 | 6.4 | 0.00 | 0.00 | 0.00 | 57 | 1012.9 |
| 20260504202156 | 17 | 295 | 3.2 | 6.4 | 0.00 | 0.00 | 0.00 | 57 | 1012.9 |
| 20260504202100 | 17 | 319 | 3.2 | 6.4 | 0.00 | 0.00 | 0.00 | 57 | 1012.9 |
| 20260504201858 | 17 | 322 | 3.2 | 6.4 | 0.00 | 0.00 | 0.00 | 57 | 1012.9 |
| 20260504201753 | 17 | 322 | 3.2 | 6.4 | 0.00 | 0.00 | 0.00 | 57 | 1012.9 |
| 20260504201657 | 17 | 298 | 3.2 | 8.0 | 0.00 | 0.00 | 0.00 | 57 | 1012.9 |
| 20260504201557 | 17 | 317 | 3.2 | 8.0 | 0.00 | 0.00 | 0.00 | 57 | 1012.9 |
| 20260504201457 | 17 | 317 | 3.2 | 8.0 | 0.00 | 0.00 | 0.00 | 57 | 1012.9 |
| 20260504201354 | 17 | 315 | 3.2 | 8.0 | 0.00 | 0.00 | 0.00 | 57 | 1012.9 |
| 20260504201254 | 17 | 291 | 3.2 | 8.0 | 0.00 | 0.00 | 0.00 | 57 | 1013.0 |
| 20260504201157 | 17 | 326 | 3.2 | 8.0 | 0.00 | 0.00 | 0.00 | 57 | 1012.9 |
| 20260504201051 | 17 | 329 | 3.2 | 8.0 | 0.00 | 0.00 | 0.00 | 57 | 1013.0 |
| 20260504200855 | 17 | 328 | 3.2 | 8.0 | 0.00 | 0.00 | 0.00 | 57 | 1012.9 |
| 20260504200754 | 17 | 318 | 3.2 | 9.7 | 0.00 | 0.00 | 0.00 | 58 | 1012.9 |
| 20260504200651 | 17 | 277 | 3.2 | 9.7 | 0.00 | 0.00 | 0.00 | 58 | 1012.9 |
| 20260504200548 | 17 | 317 | 3.2 | 9.7 | 0.00 | 0.00 | 0.00 | 58 | 1012.9 |
| 20260504200347 | 17 | 319 | 4.8 | 12.9 | 0.00 | 0.00 | 0.00 | 57 | 1012.9 |
| 20260504200244 | 17 | 295 | 4.8 | 12.9 | 0.00 | 0.00 | 0.00 | 58 | 1012.9 |
| 20260504200148 | 16 | 321 | 4.8 | 12.9 | 0.00 | 0.00 | 0.00 | 58 | 1012.9 |
| 20260504200055 | 17 | 321 | 4.8 | 12.9 | 0.00 | 0.00 | 0.00 | 58 | 1012.9 |
| 20260504195946 | 17 | 299 | 4.8 | 12.9 | 0.00 | 0.00 | 0.00 | 58 | 1012.9 |
| 20260504195847 | 16 | 324 | 4.8 | 12.9 | 0.00 | 0.00 | 0.00 | 58 | 1012.9 |
| 20260504195743 | 16 | 325 | 6.4 | 12.9 | 0.00 | 0.00 | 0.00 | 58 | 1012.9 |
| 20260504195645 | 16 | 323 | 6.4 | 12.9 | 0.00 | 0.00 | 0.00 | 58 | 1012.9 |
| 20260504195542 | 16 | 296 | 6.4 | 12.9 | 0.00 | 0.00 | 0.00 | 59 | 1012.9 |
| 20260504195445 | 16 | 330 | 6.4 | 12.9 | 0.00 | 0.00 | 0.00 | 59 | 1013.0 |
| 20260504195339 | 16 | 325 | 6.4 | 9.7 | 0.00 | 0.00 | 0.00 | 59 | 1012.9 |
| 20260504195239 | 16 | 326 | 6.4 | 9.7 | 0.00 | 0.00 | 0.00 | 59 | 1012.9 |
| 20260504195141 | 16 | 328 | 6.4 | 9.7 | 0.00 | 0.00 | 0.00 | 59 | 1012.9 |
| 20260504195041 | 16 | 328 | 6.4 | 9.7 | 0.00 | 0.00 | 0.00 | 58 | 1012.9 |
| 20260504194835 | 16 | 330 | 6.4 | 9.7 | 0.00 | 0.00 | 0.00 | 58 | 1012.9 |
| 20260504194733 | 16 | 322 | 4.8 | 9.7 | 0.00 | 0.00 | 0.00 | 58 | 1012.9 |
| 20260504194628 | 16 | 326 | 4.8 | 9.7 | 0.00 | 0.00 | 0.00 | 58 | 1012.9 |
| 20260504194536 | 16 | 324 | 4.8 | 8.0 | 0.00 | 0.00 | 0.00 | 58 | 1012.9 |
| 20260504194425 | 16 | 325 | 4.8 | 8.0 | 0.00 | 0.00 | 0.00 | 58 | 1012.9 |
| 20260504194324 | 17 | 324 | 4.8 | 8.0 | 0.00 | 0.00 | 0.00 | 58 | 1012.9 |
| 20260504194227 | 17 | 323 | 4.8 | 8.0 | 0.00 | 0.00 | 0.00 | 58 | 1013.0 |
| 20260504194121 | 17 | 331 | 4.8 | 8.0 | 0.00 | 0.00 | 0.00 | 58 | 1012.9 |
| 20260504194020 | 17 | 326 | 4.8 | 8.0 | 0.00 | 0.00 | 0.00 | 58 | 1012.9 |
| 20260504193918 | 17 | 331 | 4.8 | 8.0 | 0.00 | 0.00 | 0.00 | 58 | 1012.9 |
| 20260504193817 | 17 | 331 | 4.8 | 8.0 | 0.00 | 0.00 | 0.00 | 58 | 1013.0 |
| 20260504193716 | 17 | 333 | 4.8 | 8.0 | 0.00 | 0.00 | 0.00 | 58 | 1013.0 |
| 20260504193617 | 17 | 328 | 4.8 | 8.0 | 0.00 | 0.00 | 0.00 | 58 | 1013.0 |
| 20260504193522 | 17 | 327 | 4.8 | 8.0 | 0.00 | 0.00 | 0.00 | 57 | 1013.0 |
| 20260504193413 | 17 | 326 | 4.8 | 8.0 | 0.00 | 0.00 | 0.00 | 57 | 1013.0 |
| 20260504193318 | 17 | 331 | 4.8 | 8.0 | 0.00 | 0.00 | 0.00 | 57 | 1013.0 |
| 20260504193206 | 17 | 331 | 4.8 | 8.0 | 0.00 | 0.00 | 0.00 | 57 | 1013.0 |
| 20260504193106 | 17 | 333 | 4.8 | 8.0 | 0.00 | 0.00 | 0.00 | 57 | 1013.1 |
| 20260504193018 | 17 | 329 | 4.8 | 8.0 | 0.00 | 0.00 | 0.00 | 56 | 1013.0 |
| 20260504192906 | 17 | 329 | 4.8 | 9.7 | 0.00 | 0.00 | 0.00 | 56 | 1013.0 |
| 20260504192808 | 17 | 325 | 4.8 | 9.7 | 0.00 | 0.00 | 0.00 | 56 | 1013.0 |
| 20260504192701 | 17 | 319 | 3.2 | 9.7 | 0.00 | 0.00 | 0.00 | 56 | 1013.0 |
| 20260504192601 | 17 | 327 | 3.2 | 9.7 | 0.00 | 0.00 | 0.00 | 56 | 1013.1 |
| 20260504192457 | 17 | 323 | 3.2 | 9.7 | 0.00 | 0.00 | 0.00 | 55 | 1013.1 |
| 20260504192358 | 17 | 329 | 3.2 | 9.7 | 0.00 | 0.00 | 0.00 | 55 | 1013.1 |
| 20260504192304 | 17 | 293 | 3.2 | 9.7 | 0.00 | 0.00 | 0.00 | 55 | 1013.1 |
| 20260504192158 | 17 | 284 | 3.2 | 9.7 | 0.00 | 0.00 | 0.00 | 55 | 1013.1 |
| 20260504192105 | 17 | 308 | 3.2 | 9.7 | 0.00 | 0.00 | 0.00 | 55 | 1013.2 |
| 20260504191957 | 17 | 303 | 1.6 | 9.7 | 0.00 | 0.00 | 0.00 | 55 | 1013.1 |
| 20260504191857 | 17 | 299 | 1.6 | 8.0 | 0.00 | 0.00 | 0.00 | 55 | 1013.2 |
| 20260504191758 | 17 | 299 | 3.2 | 8.0 | 0.00 | 0.00 | 0.00 | 55 | 1013.2 |
| 20260504191653 | 17 | 285 | 3.2 | 8.0 | 0.00 | 0.00 | 0.00 | 55 | 1013.1 |
| 20260504191551 | 17 | 281 | 3.2 | 8.0 | 0.00 | 0.00 | 0.00 | 55 | 1013.1 |
| 20260504191450 | 17 | 280 | 3.2 | 8.0 | 0.00 | 0.00 | 0.00 | 54 | 1013.1 |
| 20260504191352 | 17 | 279 | 3.2 | 8.0 | 0.00 | 0.00 | 0.00 | 54 | 1013.1 |
| 20260504191250 | 17 | 276 | 3.2 | 8.0 | 0.00 | 0.00 | 0.00 | 54 | 1013.1 |
| 20260504191150 | 17 | 270 | 3.2 | 8.0 | 0.00 | 0.00 | 0.00 | 54 | 1013.1 |
| 20260504191051 | 17 | 281 | 3.2 | 6.4 | 0.00 | 0.00 | 0.00 | 54 | 1013.1 |
| 20260504190944 | 17 | 280 | 3.2 | 8.0 | 0.00 | 0.00 | 0.00 | 54 | 1013.1 |
| 20260504190841 | 17 | 288 | 3.2 | 8.0 | 0.00 | 0.00 | 0.00 | 54 | 1013.1 |
| 20260504190739 | 17 | 286 | 3.2 | 8.0 | 0.00 | 0.00 | 0.00 | 54 | 1013.1 |
| 20260504190638 | 17 | 298 | 4.8 | 8.0 | 0.00 | 0.00 | 0.00 | 54 | 1013.2 |
| 20260504190539 | 17 | 307 | 4.8 | 8.0 | 0.00 | 0.00 | 0.00 | 54 | 1013.2 |
| 20260504190338 | 18 | 280 | 4.8 | 9.7 | 0.00 | 0.00 | 0.00 | 54 | 1013.1 |
| 20260504190233 | 18 | 285 | 4.8 | 9.7 | 0.00 | 0.00 | 0.00 | 54 | 1013.1 |
| 20260504190133 | 18 | 287 | 4.8 | 9.7 | 0.00 | 0.00 | 0.00 | 54 | 1013.0 |
| 20260504190033 | 18 | 276 | 4.8 | 9.7 | 0.00 | 0.00 | 0.00 | 54 | 1013.1 |
| 20260504185932 | 18 | 289 | 4.8 | 9.7 | 0.00 | 0.00 | 0.00 | 53 | 1013.1 |
| 20260504185833 | 18 | 284 | 4.8 | 9.7 | 0.00 | 0.00 | 0.00 | 54 | 1013.0 |
| 20260504185732 | 18 | 283 | 3.2 | 9.7 | 0.00 | 0.00 | 0.00 | 53 | 1013.0 |
| 20260504185630 | 18 | 298 | 3.2 | 9.7 | 0.00 | 0.00 | 0.00 | 53 | 1013.0 |
| 20260504185525 | 18 | 293 | 3.2 | 6.4 | 0.00 | 0.00 | 0.00 | 53 | 1013.0 |
| 20260504185426 | 18 | 327 | 3.2 | 6.4 | 0.00 | 0.00 | 0.00 | 54 | 1013.0 |
| 20260504185324 | 18 | 328 | 3.2 | 6.4 | 0.00 | 0.00 | 0.00 | 53 | 1013.0 |
| 20260504185226 | 18 | 329 | 3.2 | 6.4 | 0.00 | 0.00 | 0.00 | 53 | 1012.9 |
| 20260504185121 | 18 | 329 | 3.2 | 6.4 | 0.00 | 0.00 | 0.00 | 53 | 1012.9 |
| 20260504185023 | 18 | 329 | 3.2 | 6.4 | 0.00 | 0.00 | 0.00 | 53 | 1013.0 |
| 20260504184816 | 18 | 329 | 3.2 | 6.4 | 0.00 | 0.00 | 0.00 | 53 | 1013.0 |
| 20260504184716 | 18 | 329 | 3.2 | 6.4 | 0.00 | 0.00 | 0.00 | 53 | 1013.0 |
| 20260504184629 | 18 | 329 | 3.2 | 6.4 | 0.00 | 0.00 | 0.00 | 53 | 1013.0 |
| 20260504184548 | 18 | 329 | 3.2 | 6.4 | 0.00 | 0.00 | 0.00 | 53 | 1013.0 |
| 20260504184504 | 18 | 329 | 3.2 | 6.4 | 0.00 | 0.00 | 0.00 | 53 | 1013.1 |
| 20260504184419 | 18 | 330 | 3.2 | 6.4 | 0.00 | 0.00 | 0.00 | 53 | 1013.0 |
| 20260504184347 | 18 | 329 | 3.2 | 6.4 | 0.00 | 0.00 | 0.00 | 53 | 1013.1 |
| 20260504184315 | 18 | 328 | 3.2 | 6.4 | 0.00 | 0.00 | 0.00 | 53 | 1013.0 |
| 20260504184021 | 18 | 327 | 3.2 | 6.4 | 0.00 | 0.00 | 0.00 | 53 | 1013.0 |
| 20260504183929 | 18 | 326 | 1.6 | 6.4 | 0.00 | 0.00 | 0.00 | 53 | 1013.0 |
| 20260504183841 | 18 | 326 | 1.6 | 6.4 | 0.00 | 0.00 | 0.00 | 53 | 1013.0 |
| 20260504183800 | 18 | 326 | 3.2 | 6.4 | 0.00 | 0.00 | 0.00 | 53 | 1013.0 |
| 20260504183730 | 18 | 326 | 3.2 | 6.4 | 0.00 | 0.00 | 0.00 | 53 | 1013.0 |
| 20260504183644 | 18 | 326 | 3.2 | 6.4 | 0.00 | 0.00 | 0.00 | 53 | 1013.0 |
| 20260504183356 | 18 | 324 | 3.2 | 6.4 | 0.00 | 0.00 | 0.00 | 53 | 1013.0 |
| 20260504183255 | 18 | 324 | 3.2 | 8.0 | 0.00 | 0.00 | 0.00 | 53 | 1013.1 |
| 20260504183157 | 18 | 306 | 3.2 | 8.0 | 0.00 | 0.00 | 0.00 | 53 | 1013.1 |
| 20260504183059 | 18 | 305 | 3.2 | 8.0 | 0.00 | 0.00 | 0.00 | 53 | 1013.0 |
| 20260504182956 | 18 | 305 | 3.2 | 8.0 | 0.00 | 0.00 | 0.00 | 53 | 1013.0 |
| 20260504182854 | 18 | 302 | 3.2 | 8.0 | 0.00 | 0.00 | 0.00 | 53 | 1013.0 |
| 20260504182751 | 18 | 302 | 3.2 | 8.0 | 0.00 | 0.00 | 0.00 | 53 | 1013.0 |
| 20260504182650 | 18 | 276 | 3.2 | 8.0 | 0.00 | 0.00 | 0.00 | 53 | 1013.0 |
| 20260504182543 | 18 | 295 | 3.2 | 8.0 | 0.00 | 0.00 | 0.00 | 53 | 1013.1 |
| 20260504182443 | 18 | 297 | 3.2 | 8.0 | 0.00 | 0.00 | 0.00 | 53 | 1013.0 |
| 20260504182342 | 18 | 274 | 3.2 | 8.0 | 0.00 | 0.00 | 0.00 | 53 | 1013.0 |
| 20260504182234 | 18 | 289 | 3.2 | 8.0 | 0.00 | 0.00 | 0.00 | 53 | 1013.1 |
| 20260504182132 | 18 | 289 | 3.2 | 8.0 | 0.00 | 0.00 | 0.00 | 53 | 1013.1 |
| 20260504182037 | 18 | 291 | 3.2 | 8.0 | 0.00 | 0.00 | 0.00 | 53 | 1013.1 |
| 20260504181935 | 18 | 294 | 4.8 | 8.0 | 0.00 | 0.00 | 0.00 | 53 | 1013.0 |
| 20260504181832 | 18 | 284 | 4.8 | 8.0 | 0.00 | 0.00 | 0.00 | 53 | 1013.0 |
| 20260504181735 | 18 | 281 | 4.8 | 8.0 | 0.00 | 0.00 | 0.00 | 53 | 1013.0 |
| 20260504181634 | 18 | 277 | 4.8 | 8.0 | 0.00 | 0.00 | 0.00 | 53 | 1013.0 |
| 20260504181532 | 18 | 274 | 4.8 | 9.7 | 0.00 | 0.00 | 0.00 | 53 | 1013.0 |
| 20260504181433 | 18 | 279 | 4.8 | 9.7 | 0.00 | 0.00 | 0.00 | 53 | 1013.0 |
| 20260504181332 | 18 | 278 | 4.8 | 9.7 | 0.00 | 0.00 | 0.00 | 53 | 1013.1 |
| 20260504181232 | 18 | 277 | 6.4 | 9.7 | 0.00 | 0.00 | 0.00 | 53 | 1013.1 |
| 20260504181130 | 18 | 274 | 6.4 | 9.7 | 0.00 | 0.00 | 0.00 | 53 | 1013.1 |
| 20260504181036 | 18 | 282 | 4.8 | 9.7 | 0.00 | 0.00 | 0.00 | 53 | 1013.1 |
| 20260504180927 | 18 | 280 | 4.8 | 9.7 | 0.00 | 0.00 | 0.00 | 53 | 1013.1 |
| 20260504180826 | 18 | 280 | 4.8 | 9.7 | 0.00 | 0.00 | 0.00 | 52 | 1013.1 |
| 20260504180725 | 18 | 284 | 4.8 | 9.7 | 0.00 | 0.00 | 0.00 | 52 | 1013.1 |
| 20260504180625 | 18 | 288 | 4.8 | 9.7 | 0.00 | 0.00 | 0.00 | 52 | 1013.0 |
| 20260504180523 | 18 | 292 | 4.8 | 9.7 | 0.00 | 0.00 | 0.00 | 52 | 1013.0 |
| 20260504180424 | 18 | 284 | 4.8 | 9.7 | 0.00 | 0.00 | 0.00 | 52 | 1013.0 |
| 20260504180324 | 18 | 272 | 3.2 | 9.7 | 0.00 | 0.00 | 0.00 | 52 | 1013.0 |
| 20260504180220 | 18 | 278 | 3.2 | 8.0 | 0.00 | 0.00 | 0.00 | 52 | 1013.0 |
| 20260504180119 | 18 | 281 | 3.2 | 8.0 | 0.00 | 0.00 | 0.00 | 52 | 1012.9 |
| 20260504180027 | 18 | 294 | 3.2 | 8.0 | 0.00 | 0.00 | 0.00 | 52 | 1013.0 |
| 20260504175915 | 18 | 293 | 3.2 | 8.0 | 0.00 | 0.00 | 0.00 | 52 | 1012.9 |
| 20260504175813 | 18 | 314 | 3.2 | 9.7 | 0.00 | 0.00 | 0.00 | 51 | 1012.8 |
| 20260504175716 | 18 | 302 | 3.2 | 9.7 | 0.00 | 0.00 | 0.00 | 52 | 1012.8 |
| 20260504175613 | 18 | 320 | 4.8 | 9.7 | 0.00 | 0.00 | 0.00 | 52 | 1012.8 |
| 20260504175523 | 18 | 320 | 4.8 | 9.7 | 0.00 | 0.00 | 0.00 | 51 | 1012.8 |
| 20260504175410 | 18 | 318 | 4.8 | 9.7 | 0.00 | 0.00 | 0.00 | 52 | 1012.7 |
| 20260504175310 | 18 | 323 | 4.8 | 9.7 | 0.00 | 0.00 | 0.00 | 52 | 1012.8 |
| 20260504175207 | 18 | 323 | 4.8 | 9.7 | 0.00 | 0.00 | 0.00 | 52 | 1012.7 |
| 20260504175107 | 18 | 321 | 4.8 | 9.7 | 0.00 | 0.00 | 0.00 | 52 | 1012.8 |
| 20260504175012 | 18 | 326 | 4.8 | 9.7 | 0.00 | 0.00 | 0.00 | 52 | 1012.7 |
| 20260504174903 | 18 | 324 | 4.8 | 11.3 | 0.00 | 0.00 | 0.00 | 52 | 1012.7 |
| 20260504174805 | 18 | 326 | 4.8 | 11.3 | 0.00 | 0.00 | 0.00 | 52 | 1012.7 |
| 20260504174704 | 18 | 329 | 4.8 | 11.3 | 0.00 | 0.00 | 0.00 | 52 | 1012.7 |
| 20260504174610 | 18 | 332 | 4.8 | 11.3 | 0.00 | 0.00 | 0.00 | 52 | 1012.6 |
| 20260504174515 | 18 | 331 | 4.8 | 11.3 | 0.00 | 0.00 | 0.00 | 51 | 1012.7 |
| 20260504174403 | 18 | 331 | 4.8 | 11.3 | 0.00 | 0.00 | 0.00 | 51 | 1012.7 |
| 20260504174304 | 18 | 333 | 4.8 | 11.3 | 0.00 | 0.00 | 0.00 | 51 | 1012.7 |
| 20260504174205 | 18 | 325 | 4.8 | 11.3 | 0.00 | 0.00 | 0.00 | 51 | 1012.7 |